GFSCGP_850_thetae_000.txt.gz
Theta_e
315 312 312 313 312 311 313 314 313 312 313 314 315 315 313 318 318 318 319 321 322 324 323 324 325 326 325 325 326 325 325 324 322 320 316 316 318 318 314 311 311 311 309 309
313 314 314 315 315 315 314 314 314 315 314 315 316 313 312 314 316 317 319 322 324 325 326 326 327 328 328 326 323 321 321 320 318 317 317 316 312 310 310 310 310 309 309 308
314 315 315 316 316 317 318 316 316 316 316 315 316 316 314 315 317 318 319 321 322 321 322 323 324 324 321 320 317 315 313 312 312 311 312 312 312 311 310 310 309 309 308 306
317 316 316 315 316 316 319 317 315 316 317 319 314 320 316 316 317 316 317 319 319 319 319 320 319 316 314 313 313 313 312 313 313 313 313 313 312 311 310 309 308 307 306 305
318 317 316 316 317 318 319 315 315 314 313 314 316 317 314 316 318 317 316 317 317 317 317 316 314 314 314 314 314 314 313 313 313 313 312 312 311 310 308 306 306 305 304 303
316 316 316 317 316 316 316 317 316 315 315 316 316 315 315 315 316 316 316 317 316 316 315 315 315 315 314 314 314 314 313 313 313 312 311 310 308 306 304 304 303 304 302 301
315 316 314 316 318 315 315 316 318 319 315 318 316 317 315 314 314 316 316 317 316 316 316 315 315 315 314 314 314 313 313 312 311 311 309 307 305 302 301 302 302 303 302 301
317 315 316 314 317 317 315 316 317 320 316 318 315 319 316 312 315 318 318 317 316 316 315 315 315 315 314 314 313 312 312 311 309 308 306 304 302 300 300 300 300 299 298 299
317 317 315 315 315 316 316 314 313 314 311 315 314 315 314 313 313 315 316 315 315 315 315 314 314 314 313 313 312 310 309 307 305 304 302 299 297 296 295 294 293 293 292 293
316 316 315 315 316 314 315 312 314 310 314 315 314 315 315 315 314 313 312 314 314 313 314 313 312 312 312 312 310 307 305 304 303 301 300 298 296 294 294 293 292 291 290 297
314 313 314 315 315 315 315 314 311 311 309 311 311 314 310 313 314 311 310 313 313 313 312 311 311 311 311 309 308 307 303 302 301 299 297 295 294 293 292 291 290 290 293 297
314 312 312 315 314 314 314 314 309 307 312 306 305 309 307 307 310 311 310 310 310 310 309 309 310 309 307 305 302 302 301 301 299 297 295 295 294 293 292 291 290 290 292 295
313 312 313 315 313 312 316 315 310 307 306 312 308 309 308 309 308 309 309 308 308 308 308 309 308 305 302 302 301 301 300 299 297 296 295 295 294 293 292 291 290 290 293 293
313 311 312 313 313 311 313 315 311 310 307 309 308 310 312 309 307 307 308 308 308 308 308 307 304 302 301 301 303 299 298 297 296 295 295 295 294 293 291 291 290 290 292 293
310 313 312 312 311 312 312 312 312 312 310 311 311 309 309 309 307 308 309 308 308 308 306 304 303 302 303 302 299 298 297 296 295 295 295 294 294 293 291 291 291 290 291 292
307 309 308 315 311 309 312 310 310 311 311 310 312 311 310 309 309 308 309 309 308 308 305 303 302 302 301 299 298 297 296 295 295 295 294 294 293 291 291 291 291 291 292 292
305 304 304 304 306 305 306 308 309 309 309 309 311 310 308 308 308 309 309 309 310 308 305 303 302 301 300 298 297 296 295 295 295 294 294 293 292 291 291 291 291 292 292 291
303 302 298 303 300 304 308 307 309 311 311 310 310 309 309 310 310 311 311 311 310 308 304 301 301 300 299 297 296 295 295 295 294 294 293 292 291 292 291 290 291 291 291 291
304 300 302 303 303 304 307 311 311 312 311 309 309 308 309 310 310 310 311 310 309 307 303 302 301 299 296 295 294 294 295 294 294 293 291 292 292 292 291 290 291 291 291 291
304 298 301 297 301 301 305 308 311 311 311 310 310 308 308 308 304 309 311 310 308 304 302 300 299 297 296 295 295 295 293 293 292 291 292 292 292 291 291 290 291 290 290 289
304 301 299 295 298 303 303 310 311 312 310 311 312 311 308 306 310 311 310 309 307 304 303 299 298 296 296 296 294 292 291 290 290 290 290 291 292 291 291 289 290 290 289 289
309 305 302 299 299 306 306 310 310 311 311 312 313 313 312 312 310 308 307 306 305 304 299 299 297 297 295 293 291 290 290 290 290 289 289 290 290 291 291 289 289 288 289 288
309 306 305 304 305 306 309 310 313 312 311 312 313 313 313 311 309 308 306 305 303 299 298 297 296 295 292 290 290 290 290 289 289 289 290 290 290 291 291 288 287 287 288 287
308 306 305 307 309 308 311 311 312 312 312 313 313 313 313 312 310 307 305 299 298 297 299 296 294 292 291 290 290 289 289 289 289 289 290 289 291 291 291 288 287 287 287 287
307 308 308 306 309 311 312 313 313 314 314 313 313 314 313 311 309 306 301 300 298 301 295 293 291 291 290 290 290 289 289 289 289 289 289 289 290 290 290 289 287 287 287 286
309 308 306 307 311 310 310 312 313 313 314 314 313 313 311 310 307 300 301 298 298 294 292 291 290 290 290 290 290 290 289 289 289 289 289 290 290 289 290 289 288 288 287 285

GFSCGP_850_thetae_003.txt.gz
Theta_e
313 316 316 314 312 312 313 314 315 313 315 319 318 319 318 318 318 319 320 321 322 323 323 324 324 324 323 321 322 322 323 324 321 319 318 317 317 317 315 310 309 309 310 309
316 316 314 315 315 315 316 317 317 316 316 319 320 321 319 318 317 318 319 320 322 323 325 326 326 326 326 325 325 323 320 317 316 316 315 315 313 309 310 310 310 310 309 309
317 315 315 316 316 319 317 318 316 318 318 317 320 321 322 319 318 318 317 318 320 325 327 328 327 323 321 319 318 316 314 315 313 311 311 312 312 311 310 310 309 308 308 306
318 315 315 316 318 317 320 315 318 318 319 321 315 322 322 321 321 319 318 317 318 322 323 321 318 316 314 312 311 312 311 312 312 312 312 311 311 310 309 308 306 305 305 304
317 316 316 318 316 317 319 316 317 315 317 317 318 322 319 320 323 321 318 317 316 319 317 314 313 312 312 312 312 313 313 312 312 311 311 310 309 308 306 304 303 303 303 303
315 315 315 316 315 315 316 318 318 317 319 322 318 318 320 322 323 321 318 316 315 315 314 313 313 313 313 313 313 313 313 312 312 311 310 309 308 306 305 303 301 301 300 299
316 316 314 315 318 316 317 320 324 324 325 322 317 318 320 318 318 320 318 317 315 315 314 314 314 313 313 313 312 312 312 312 311 310 308 307 305 302 298 296 295 294 293 293
318 319 315 315 317 318 317 320 325 324 324 322 316 322 320 314 315 318 318 317 316 315 314 314 314 314 313 313 313 313 313 312 308 306 304 301 298 296 294 293 292 291 291 291
319 317 314 314 314 316 316 318 315 317 312 319 319 317 317 314 314 316 316 316 315 315 315 315 315 314 313 313 313 312 309 307 305 303 300 298 296 296 295 294 292 291 291 291
317 317 314 314 314 314 316 313 318 316 321 320 317 318 320 317 316 316 315 315 315 315 315 315 313 312 312 311 309 308 306 304 303 301 299 297 296 295 294 294 292 291 291 291
313 317 316 315 316 317 316 315 313 314 314 316 317 318 314 316 317 316 316 314 315 315 314 313 311 311 310 308 307 307 305 303 302 299 297 297 297 296 295 293 291 290 290 291
314 316 318 315 314 314 314 314 313 316 312 311 314 316 309 311 310 313 312 313 313 313 312 310 310 310 307 306 304 304 303 302 299 298 297 297 296 295 294 291 290 290 291 292
314 316 319 317 314 313 316 314 310 310 311 314 323 316 310 309 309 310 311 310 311 311 308 308 309 307 305 303 305 304 302 299 298 297 296 296 295 294 293 291 290 291 291 291
313 313 316 319 315 313 315 315 311 313 316 313 316 315 312 312 311 308 308 309 309 308 308 309 308 307 304 303 304 302 299 298 297 296 296 295 294 294 292 290 290 291 291 291
313 316 313 312 311 312 311 313 312 313 313 317 314 312 312 313 312 309 308 307 307 307 308 309 309 306 303 305 302 299 298 296 296 296 295 294 294 293 291 290 290 291 291 292
309 314 310 314 311 310 313 311 311 312 312 311 311 313 311 310 309 308 308 307 307 308 309 309 307 305 302 301 300 298 297 296 296 295 295 294 294 293 290 290 290 291 291 292
309 310 310 311 307 307 312 311 311 311 311 314 315 315 311 310 309 309 308 307 308 310 310 309 307 305 302 301 299 297 296 296 295 295 294 293 293 291 291 291 290 290 291 292
306 305 304 312 305 313 312 309 309 311 310 310 311 311 311 311 310 310 310 310 310 310 310 309 306 303 301 300 297 296 296 295 295 294 293 293 291 291 292 291 290 290 291 291
305 306 306 314 311 308 309 308 312 313 313 312 312 311 309 309 310 311 311 311 311 311 310 308 305 302 300 299 296 295 295 295 294 293 292 291 291 291 292 291 291 289 290 290
305 302 311 306 311 311 310 306 311 311 316 311 311 310 308 309 315 314 312 312 312 310 309 305 302 301 299 297 295 295 296 294 292 291 290 290 290 291 292 292 291 289 290 289
311 306 310 302 313 310 306 309 310 314 315 310 311 311 308 311 313 311 312 312 311 310 306 302 301 299 297 296 296 297 294 291 290 290 290 290 290 290 291 291 291 290 289 288
313 312 310 303 308 313 305 310 314 314 312 311 312 312 312 313 312 311 310 310 309 307 303 305 300 297 296 297 296 293 291 290 290 289 289 289 289 290 290 291 291 290 288 287
313 311 312 309 312 307 308 311 312 312 312 312 311 312 312 311 310 309 308 307 305 304 304 298 297 298 297 295 292 291 290 290 289 289 289 289 290 290 290 291 291 289 288 288
309 305 310 309 310 307 309 311 311 311 311 312 312 311 312 312 310 308 306 304 302 299 297 301 302 296 294 292 291 290 290 289 289 289 289 289 289 290 290 291 290 288 288 287
309 308 309 309 309 310 311 311 311 312 312 313 313 313 312 312 310 308 305 300 298 298 300 299 294 293 291 291 290 290 290 290 290 289 289 289 290 290 290 290 289 289 287 287
308 310 312 314 312 310 311 312 313 314 313 313 313 313 313 311 309 306 299 296 299 300 295 293 292 291 291 290 290 290 290 290 290 289 288 288 288 289 289 289 289 289 288 287

GFSCGP_850_thetae_006.txt.gz
Theta_e
317 317 318 319 318 318 318 318 317 319 321 323 323 323 322 323 325 327 326 325 325 325 326 325 325 327 328 329 327 324 323 323 324 320 319 318 317 316 315 309 309 309 309 308
318 319 318 319 317 319 318 318 320 319 320 323 324 325 323 322 324 326 326 326 326 325 326 328 328 328 328 327 326 326 324 324 321 319 318 317 316 313 309 310 310 310 309 308
319 320 319 320 320 320 321 321 322 320 321 323 324 325 325 323 322 322 324 325 326 327 328 328 329 329 329 328 328 326 323 319 317 315 312 311 311 311 311 309 308 308 307 306
321 318 320 321 321 321 321 320 321 321 322 322 322 323 326 326 325 324 324 325 326 328 329 329 330 330 329 327 325 321 317 314 311 310 311 311 312 311 309 308 307 307 306 304
321 320 321 321 321 321 322 322 322 322 323 323 323 323 327 326 327 326 325 325 326 327 326 325 324 324 320 317 315 313 312 311 310 311 311 311 309 308 307 306 305 305 304 303
320 318 320 321 320 320 320 322 322 322 323 324 322 323 323 327 327 327 324 323 322 322 320 318 318 315 314 313 312 311 311 311 312 312 311 309 307 304 302 300 299 298 296 296
321 320 319 320 322 321 322 323 323 322 324 324 321 322 322 323 324 326 324 321 320 318 316 315 314 313 313 313 312 311 311 312 311 310 307 304 302 300 297 296 295 295 295 295
320 322 319 319 321 321 323 323 322 321 324 321 321 321 321 320 321 324 323 320 319 317 316 316 315 314 314 312 311 311 310 311 308 305 304 301 299 297 296 295 294 295 295 295
320 320 318 318 319 320 320 322 321 323 320 324 322 323 322 319 320 323 322 320 318 318 317 317 316 314 312 311 310 310 308 306 304 303 303 298 297 297 295 295 295 294 294 295
321 321 319 318 318 318 320 319 322 323 324 322 321 322 322 322 321 322 321 320 318 318 317 317 314 312 311 310 311 309 306 304 307 305 299 297 297 297 296 294 292 292 292 294
320 321 320 319 320 321 319 320 318 320 321 319 317 317 321 321 322 321 321 320 319 318 317 316 313 312 310 309 309 307 304 305 303 300 297 297 297 297 295 294 292 291 290 294
319 322 324 321 318 318 319 319 318 318 317 319 322 317 316 318 319 320 320 319 319 318 317 315 312 311 310 307 305 304 303 302 300 298 297 297 297 296 295 294 293 292 293 293
320 323 323 321 319 318 320 319 316 317 319 319 327 316 316 317 317 317 319 319 318 317 315 312 311 309 307 304 303 304 301 301 298 298 297 297 296 295 295 294 293 293 293 294
316 321 322 324 320 319 320 319 317 317 319 317 319 316 316 317 318 317 316 317 316 315 313 311 308 307 305 303 305 302 301 299 298 298 297 296 295 295 295 294 293 293 293 293
320 322 319 317 316 316 317 318 318 317 318 318 316 316 315 316 317 318 316 315 315 313 311 309 307 306 304 303 303 301 299 299 298 297 296 296 295 295 295 294 293 292 293 293
317 322 318 319 316 316 317 317 318 318 318 317 317 317 317 316 315 316 315 314 313 312 310 309 308 306 304 303 302 300 299 298 297 297 296 295 294 294 294 293 293 293 293 293
320 318 317 319 314 315 319 317 317 317 317 318 318 318 317 317 316 315 315 313 312 312 310 309 309 307 304 301 301 300 298 297 297 296 295 294 293 294 294 293 293 292 292 293
314 315 315 320 312 327 315 313 314 316 316 316 316 316 315 315 316 314 314 314 312 312 311 310 309 306 303 301 301 299 297 297 296 296 295 293 294 293 293 293 293 293 292 292
313 316 316 325 317 316 313 311 313 315 315 316 315 315 314 313 314 316 313 313 314 312 311 311 309 306 303 301 300 298 296 295 295 296 294 293 292 293 292 292 293 293 292 291
311 312 318 315 330 330 315 311 314 314 316 314 315 316 315 314 320 315 314 312 312 312 311 310 307 304 302 301 300 299 295 295 296 293 292 292 292 292 292 292 293 293 292 291
319 317 322 318 325 317 313 312 313 315 315 315 315 316 315 317 315 315 312 313 312 312 310 308 308 302 300 303 300 295 295 296 293 291 291 292 291 291 292 292 292 292 292 291
319 321 321 314 323 323 310 313 318 316 316 315 315 315 315 315 315 312 311 311 311 310 306 305 301 300 304 299 295 296 296 293 291 290 290 291 291 290 291 292 292 292 291 290
319 318 319 317 318 313 311 315 315 313 314 314 314 314 314 314 314 312 309 308 307 304 301 299 300 300 296 297 297 294 292 291 290 290 290 290 291 291 291 291 292 291 290 289
315 311 316 315 315 313 312 312 312 312 313 313 313 313 313 314 313 312 308 304 302 299 297 296 298 298 298 298 296 291 290 290 290 290 290 290 290 289 290 291 291 291 290 290
316 313 316 315 314 314 313 313 313 313 314 314 314 314 314 313 313 311 304 301 298 296 298 300 300 300 298 293 291 290 290 290 290 290 290 290 290 289 289 289 291 290 290 289
313 316 317 318 314 315 314 313 313 313 314 314 314 314 311 311 309 305 300 296 299 300 299 300 296 295 293 291 290 290 290 290 290 290 290 290 290 290 289 289 290 289 289 289

GFSCGP_850_thetae_009.txt.gz
Theta_e
319 320 320 320 319 320 319 318 318 319 319 318 321 321 322 324 324 325 327 328 329 329 329 329 327 327 329 331 330 330 328 327 327 325 322 320 319 317 315 313 309 310 310 310
320 320 320 320 320 319 319 319 320 320 320 323 322 323 323 324 325 326 326 326 327 328 329 329 329 329 330 331 331 329 328 327 324 322 320 320 319 316 313 312 311 310 310 310
321 320 320 319 319 319 319 319 321 321 323 323 323 325 326 325 325 326 327 327 327 328 329 330 330 331 331 331 330 329 327 324 321 320 318 315 312 313 314 313 311 311 310 309
321 321 321 320 319 321 320 322 322 321 323 322 322 323 325 326 326 325 326 327 328 329 330 331 331 331 330 330 329 325 323 320 318 315 315 315 315 314 312 311 310 309 307 306
322 322 321 320 322 322 325 323 323 323 324 323 323 322 325 327 327 326 325 326 327 329 330 331 332 331 329 328 326 322 319 315 314 314 314 314 313 311 309 306 303 301 300 299
321 321 322 323 322 322 323 323 323 322 323 324 322 323 327 328 327 327 327 327 329 330 330 329 328 327 326 323 320 318 315 314 313 313 312 311 308 305 303 301 299 298 298 298
321 321 322 321 322 323 322 323 322 323 325 323 322 324 323 323 325 327 327 327 328 328 326 323 323 320 318 317 316 315 314 313 312 311 308 305 303 301 300 299 298 298 298 297
321 323 322 322 322 322 322 321 323 321 322 321 323 322 321 323 322 324 327 326 326 324 321 320 319 317 317 317 316 314 313 312 310 306 303 305 302 301 300 299 298 297 297 297
321 321 321 321 322 321 321 323 322 323 324 324 321 320 322 323 323 324 327 325 324 322 319 318 317 317 316 316 315 314 313 310 305 304 309 308 301 298 299 299 298 296 296 296
321 321 321 320 321 321 322 322 322 321 321 322 321 321 320 324 323 324 327 324 323 321 319 318 318 318 317 316 314 313 311 306 305 308 305 301 299 300 299 298 297 296 296 296
321 321 322 321 321 321 322 320 320 322 324 324 320 320 321 319 322 323 325 324 323 321 319 319 319 318 316 315 314 311 307 306 305 304 301 300 300 300 299 298 296 296 295 295
320 322 326 323 322 321 322 322 322 322 321 322 324 320 319 321 321 322 323 323 322 321 320 319 319 317 315 314 312 309 307 305 304 302 302 300 300 299 298 297 296 296 295 295
323 322 324 323 322 321 320 321 320 319 321 319 326 319 319 319 320 320 321 322 322 321 320 320 319 316 315 313 310 307 306 305 303 301 300 300 300 299 298 297 296 295 295 295
319 321 322 324 322 322 322 319 320 319 321 320 320 318 318 318 319 319 319 320 321 321 321 320 319 316 315 312 309 306 305 304 301 300 300 299 299 299 298 297 296 295 294 294
323 323 322 322 321 319 319 320 320 319 319 321 319 316 316 317 318 317 318 318 319 321 320 320 318 315 314 311 308 306 305 303 300 300 299 299 299 298 297 297 296 295 294 294
322 324 322 323 321 320 320 319 318 319 319 318 317 317 318 318 317 317 317 318 318 319 319 318 316 314 312 310 307 306 305 302 300 299 299 299 298 297 296 296 295 295 294 294
324 325 322 320 319 320 322 320 319 318 318 318 319 319 319 319 317 317 317 317 317 317 317 316 315 313 311 309 307 306 303 301 300 299 298 298 297 296 296 295 295 294 294 294
323 322 321 321 317 324 318 317 316 318 318 318 318 317 317 317 317 317 317 317 317 316 316 315 314 312 311 309 306 305 302 300 299 298 297 297 296 295 295 294 294 294 294 294
319 321 321 327 319 317 316 314 315 316 316 317 317 316 316 316 316 317 317 316 316 315 315 315 314 313 312 308 305 303 301 300 298 298 296 297 295 294 294 294 294 294 294 294
315 318 320 318 326 326 319 316 316 316 316 315 315 315 315 316 317 316 317 315 314 314 314 314 314 313 311 307 304 302 300 299 299 297 297 294 294 294 293 293 293 293 294 293
321 322 324 321 325 321 316 315 315 316 318 316 315 315 315 316 315 317 316 315 315 315 314 314 313 312 310 306 302 300 301 298 297 296 295 294 293 293 293 293 293 293 293 293
321 323 325 322 322 324 313 315 318 319 316 315 315 315 316 316 316 315 315 314 313 314 314 313 312 308 304 301 300 299 298 297 296 295 294 293 293 293 293 293 293 293 293 293
322 321 322 319 320 316 314 315 315 315 315 315 314 314 315 315 314 315 315 314 311 311 310 307 304 299 298 298 298 297 294 295 296 291 291 293 293 292 292 292 292 293 293 292
319 316 318 317 316 315 315 314 314 314 314 315 315 315 315 316 315 315 315 313 308 307 304 300 298 296 295 297 299 298 295 293 290 290 291 291 290 291 291 291 292 292 292 292
319 317 317 317 316 314 315 315 315 315 315 316 316 316 316 315 314 315 313 307 304 299 297 297 298 298 298 295 294 294 293 290 290 290 290 290 290 291 292 291 291 292 292 291
317 316 319 318 316 317 316 316 316 316 316 316 315 314 311 310 311 309 304 301 300 297 298 299 298 296 294 294 293 291 290 290 290 290 290 290 291 291 292 291 290 290 290 290

GFSCGP_850_thetae_012.txt.gz
Theta_e
320 320 321 320 321 321 320 320 319 320 318 317 321 321 322 323 328 328 329 329 329 329 329 327 325 326 331 331 329 330 329 323 325 327 321 319 318 317 315 313 310 311 310 311
320 320 320 321 320 321 320 320 319 319 319 319 319 321 321 323 324 326 327 328 328 329 329 329 328 326 329 331 330 330 329 328 328 324 321 320 319 316 314 313 312 312 311 310
322 321 320 320 321 320 320 320 321 320 318 319 323 322 322 322 323 324 324 326 327 328 330 330 328 329 330 332 331 330 329 328 323 321 320 320 317 314 314 313 312 311 310 309
322 322 321 320 319 319 322 323 321 322 323 320 323 325 326 325 323 325 326 326 326 327 329 330 331 331 331 331 331 329 328 324 321 318 316 316 316 315 314 312 311 308 306 304
321 321 321 320 321 322 322 322 322 321 322 324 325 324 326 324 326 325 326 327 327 328 329 331 332 331 331 330 329 327 324 321 318 316 316 315 314 312 310 308 305 301 300 298
321 321 322 322 322 322 323 321 323 321 322 329 324 325 325 325 324 327 325 326 327 328 330 331 332 330 329 330 327 324 320 316 315 315 315 314 313 310 306 304 301 299 298 298
320 320 322 321 320 321 321 322 323 325 328 327 322 324 327 324 325 326 326 326 327 329 330 331 331 330 329 327 324 321 316 315 314 313 313 312 309 308 308 304 299 297 297 297
321 321 321 320 320 322 322 319 325 328 327 325 323 323 322 326 325 324 326 328 329 330 330 330 329 328 326 323 320 317 315 314 313 311 310 308 310 311 305 301 299 295 296 295
324 322 322 321 321 321 318 321 322 322 327 327 322 319 319 323 322 323 328 328 329 329 327 326 325 322 320 319 317 315 314 314 311 308 307 308 310 306 301 298 297 295 294 295
324 325 323 321 321 321 321 321 324 323 323 322 319 321 324 324 323 322 327 327 327 326 324 322 321 319 318 318 317 315 314 313 308 306 308 309 307 303 299 298 297 295 295 294
321 324 322 321 321 319 321 320 320 320 326 331 329 322 320 320 321 323 324 327 326 325 323 320 319 318 318 318 317 315 314 311 306 306 308 305 304 300 299 298 297 296 295 294
320 321 329 322 321 321 321 323 320 331 324 330 330 323 320 320 320 321 322 325 325 324 322 320 319 318 319 318 316 315 314 309 306 306 304 304 301 300 300 299 298 297 295 295
321 322 327 323 323 322 321 319 321 322 326 327 331 324 320 319 318 318 320 321 324 324 323 321 320 320 319 318 316 315 312 308 306 305 303 302 301 301 300 299 298 297 296 295
323 322 321 327 323 323 324 320 319 321 329 325 322 319 319 320 319 319 319 319 321 323 323 322 321 320 319 317 315 314 311 308 306 304 302 301 301 300 300 299 298 297 296 295
322 322 321 320 321 322 322 321 320 319 321 321 322 319 319 318 319 318 318 319 319 319 322 322 322 321 319 317 315 313 310 307 306 303 301 301 300 300 300 298 297 297 296 295
323 326 325 326 322 322 322 321 320 319 319 319 319 319 318 319 318 317 316 317 318 317 317 321 321 321 319 317 316 312 309 307 305 302 300 300 300 299 298 297 296 296 296 295
327 330 327 326 320 321 321 323 320 321 319 319 319 320 319 318 318 318 317 317 317 317 317 318 319 320 319 317 315 312 309 307 304 301 300 300 299 298 299 296 296 296 295 295
327 327 327 328 318 323 318 318 318 318 319 319 318 318 317 318 317 315 315 316 316 317 317 317 317 317 317 315 313 311 308 306 303 301 300 299 298 298 296 295 295 295 294 294
323 326 327 327 323 319 317 316 316 316 317 317 317 317 317 316 316 315 317 317 316 316 315 315 315 316 315 314 312 310 307 305 302 300 298 299 298 296 295 294 294 294 294 294
317 323 328 323 328 326 321 317 317 317 319 316 315 316 315 315 322 318 317 316 315 315 314 314 315 315 314 313 312 308 305 303 301 299 298 296 297 295 294 294 293 293 293 293
323 325 323 324 326 325 318 316 315 318 322 317 316 316 316 318 317 316 316 316 315 314 314 315 315 314 314 313 310 305 303 301 300 297 296 297 294 294 293 293 293 293 293 293
323 327 324 327 323 322 315 315 319 322 317 315 315 315 315 315 315 315 315 315 315 314 313 314 313 311 308 307 306 302 300 299 297 296 296 294 293 293 293 292 291 292 292 293
325 324 328 323 324 318 315 315 315 315 315 315 315 315 316 316 316 316 316 315 314 311 310 307 306 303 301 300 300 299 297 295 296 294 294 292 291 291 291 290 290 290 292 293
321 319 323 321 316 316 315 315 315 315 315 316 316 316 317 317 317 315 315 312 308 305 302 300 299 299 298 297 297 298 296 295 294 294 291 290 290 290 290 291 291 290 292 293
322 318 318 318 317 316 315 317 316 316 316 317 317 317 314 313 314 314 309 303 300 299 298 298 298 298 298 298 299 298 295 294 293 290 290 290 290 290 291 291 292 291 290 292
319 318 324 324 318 318 317 317 316 316 314 312 312 309 307 307 306 305 302 301 300 300 299 299 299 299 299 299 297 294 293 291 290 290 290 290 290 290 290 291 292 291 290 290

GFSCGP_850_thetae_015.txt.gz
Theta_e
318 316 317 318 319 319 319 318 319 317 317 316 316 317 320 323 324 324 326 327 326 326 325 325 325 329 329 327 328 329 326 325 322 324 321 319 317 315 313 313 310 311 311 311
318 318 318 320 320 319 319 319 318 317 315 314 317 317 317 322 323 323 325 322 327 325 324 324 327 329 330 328 328 328 326 325 323 326 320 318 317 316 313 312 312 311 311 310
320 320 321 321 320 320 320 321 319 318 317 317 319 321 321 322 323 324 325 323 328 327 326 326 325 329 331 330 329 328 326 324 327 327 321 318 317 315 313 312 312 311 311 309
320 319 320 320 320 319 320 321 322 321 320 318 317 321 324 322 320 321 325 327 328 328 328 328 327 329 330 330 330 330 329 326 327 323 321 319 317 314 313 312 312 311 309 304
321 321 321 321 320 320 320 320 321 322 320 323 321 322 322 321 321 322 323 324 328 328 329 330 329 329 330 331 331 330 329 328 321 320 320 316 315 315 313 312 312 307 306 301
319 320 320 321 321 320 322 320 320 320 319 322 323 321 324 322 322 322 324 325 326 329 330 330 329 330 330 330 331 329 329 326 321 318 316 315 315 315 314 312 308 310 308 300
320 319 321 321 320 321 322 322 321 321 322 322 323 325 322 322 321 321 324 324 326 329 329 330 331 331 330 330 329 329 327 323 322 320 316 315 315 314 312 309 311 310 302 296
321 322 319 320 318 320 321 318 322 322 324 326 323 324 322 321 322 323 323 324 323 328 330 331 331 331 330 329 329 327 323 322 321 316 315 314 313 311 310 311 309 302 296 295
322 323 321 321 320 320 320 320 319 324 324 326 324 321 321 321 322 323 323 322 324 328 329 330 331 330 329 330 326 323 321 319 318 315 314 312 310 310 310 308 302 297 295 294
323 324 322 321 321 319 320 319 320 320 323 321 317 319 321 321 321 322 322 321 329 330 330 330 330 330 329 328 325 321 317 317 315 314 312 309 309 308 307 302 298 298 297 294
321 322 323 322 321 318 319 318 318 318 318 319 321 319 317 318 319 320 323 326 329 329 328 327 327 326 326 323 321 319 315 314 314 313 310 307 308 306 303 299 299 297 296 295
320 322 320 323 320 319 318 320 319 315 317 317 315 318 317 316 318 320 321 326 328 327 327 325 324 323 320 319 318 317 316 314 314 312 307 307 305 303 300 300 299 298 297 296
321 318 316 318 321 321 320 318 318 321 316 318 313 316 316 317 317 318 319 321 326 326 325 324 322 320 318 318 317 317 316 314 313 310 306 306 304 302 301 300 299 299 297 296
322 321 317 317 319 321 321 320 318 318 314 315 315 318 315 315 315 317 318 319 321 325 324 323 321 319 318 318 318 317 316 315 312 308 306 305 304 302 301 300 299 298 297 297
319 319 320 320 322 321 321 321 320 317 318 316 316 318 317 316 315 316 318 318 318 318 320 322 321 320 319 319 318 317 316 315 312 308 306 304 302 301 301 300 299 298 297 296
320 321 322 322 321 320 320 319 319 319 319 317 316 316 315 316 316 316 316 316 318 317 317 317 319 321 320 319 318 317 316 314 311 307 305 303 301 301 300 299 298 296 295 295
320 316 315 320 315 315 313 316 318 318 318 318 315 314 315 314 314 314 315 316 316 317 317 317 318 320 321 320 318 317 316 314 310 307 305 301 301 300 299 298 299 295 295 295
318 318 312 314 312 310 315 317 315 317 316 314 314 314 313 313 316 316 316 316 316 316 316 316 316 316 318 318 318 317 315 312 308 306 302 300 300 299 298 298 295 295 294 295
321 313 316 312 314 315 315 315 317 315 315 314 313 313 314 315 316 317 316 315 315 315 314 314 314 314 315 316 316 315 314 309 306 303 301 299 299 298 297 295 294 294 294 293
316 313 310 312 314 310 314 315 316 315 313 315 315 314 315 315 308 313 315 315 315 315 314 314 314 315 315 315 314 312 308 304 301 299 299 298 297 297 297 294 294 293 293 293
311 310 311 308 308 312 317 315 315 311 313 316 316 315 315 314 315 315 315 315 315 314 314 313 313 314 314 313 312 307 304 302 300 300 299 297 296 297 294 293 293 293 293 292
314 314 311 314 314 316 315 314 311 315 315 315 314 314 315 315 316 316 315 314 313 312 312 312 312 310 308 307 307 303 302 299 300 298 297 297 298 295 293 293 292 291 290 290
317 317 314 315 313 315 314 315 316 315 314 315 315 316 316 317 316 315 313 312 309 307 307 307 308 306 303 302 302 301 299 299 299 299 300 299 294 293 291 291 290 290 290 291
319 318 314 313 315 315 314 314 315 315 316 317 317 317 316 315 314 311 310 308 305 303 303 302 302 302 301 300 299 299 299 300 300 299 295 294 291 290 290 290 290 291 292 291
317 315 316 315 315 317 317 317 317 317 317 315 316 314 312 313 308 308 306 303 301 300 300 299 300 300 299 298 299 298 298 297 294 292 290 290 290 290 290 290 290 291 292 291
317 315 310 308 317 315 314 314 316 315 312 309 311 309 307 307 305 304 302 301 301 301 300 299 299 299 298 297 295 294 291 291 290 290 290 290 290 290 290 290 290 291 292 292

GFSCGP_850_thetae_018.txt.gz
Theta_e
317 314 316 316 315 318 318 318 318 317 317 316 315 321 323 324 326 325 326 326 327 328 328 330 329 329 329 325 318 324 327 327 327 323 321 322 320 319 317 313 311 310 311 311
316 316 316 316 319 319 318 318 317 317 316 315 314 324 322 322 325 325 326 325 326 327 328 329 329 329 329 323 324 328 329 329 326 322 322 320 318 316 313 312 310 311 311 311
316 317 319 320 319 319 318 319 319 318 314 315 316 318 321 322 323 323 326 326 326 325 326 328 329 329 328 327 325 326 328 326 325 322 322 317 316 314 313 311 311 311 312 311
317 318 319 320 320 319 317 318 320 320 317 316 315 319 320 320 319 324 322 326 323 326 325 325 327 328 328 328 328 326 325 325 323 323 321 319 318 317 315 313 312 312 312 308
318 320 319 320 319 319 318 317 319 321 318 318 320 319 319 320 318 322 323 325 322 324 325 324 324 326 328 329 329 328 327 325 323 325 326 321 319 318 316 313 312 312 309 307
317 319 319 319 320 319 319 319 319 317 318 319 321 318 317 321 321 319 319 324 325 325 325 324 324 326 328 329 330 328 329 327 327 327 326 323 319 317 314 313 312 310 308 306
319 318 320 320 319 319 320 319 319 319 318 318 322 321 319 318 319 319 319 322 325 326 326 326 325 327 329 329 329 330 330 329 327 323 321 320 319 315 314 312 311 308 305 300
318 319 320 319 319 318 319 317 317 320 320 321 322 323 322 320 320 321 320 322 325 324 327 328 328 328 330 329 329 330 330 329 323 320 319 316 315 314 312 310 309 306 301 297
319 320 320 319 320 319 318 318 317 320 319 322 321 321 314 320 319 320 320 322 324 328 329 330 329 329 330 330 330 329 329 328 324 318 317 315 313 312 311 309 308 302 297 296
319 321 321 320 320 319 319 317 318 318 323 324 317 318 319 322 322 321 321 321 322 327 329 329 330 330 330 330 330 329 327 326 322 319 316 315 313 310 309 307 303 298 301 297
319 318 320 321 320 320 318 317 316 317 315 318 319 318 313 318 319 319 320 322 322 326 330 330 330 331 331 330 329 328 327 325 322 320 318 315 312 309 308 307 302 302 298 299
319 319 317 321 319 318 319 317 315 314 316 314 313 317 316 313 316 319 321 323 322 325 329 329 329 329 329 329 329 328 327 325 325 323 317 314 312 310 308 305 300 300 300 298
318 318 315 318 318 319 318 316 317 316 311 316 313 315 314 313 314 317 319 323 323 326 329 329 329 328 328 328 329 328 327 325 319 316 314 313 311 308 307 304 301 300 300 298
319 316 315 316 317 318 320 320 317 317 313 314 314 316 316 313 312 314 317 320 325 327 328 328 327 327 327 327 327 326 322 318 316 315 314 312 310 307 305 303 301 300 299 298
317 318 317 317 320 320 319 320 319 316 315 315 315 315 314 315 312 314 317 316 319 323 324 324 322 322 324 324 323 320 318 317 316 315 313 311 307 306 303 301 301 299 298 297
317 317 320 319 317 318 319 318 317 317 318 316 315 315 313 313 314 314 315 317 316 317 317 317 316 318 320 319 319 318 318 317 316 315 312 307 305 303 301 301 299 298 296 295
317 314 313 317 313 314 314 314 316 317 316 317 315 314 311 312 313 313 315 316 316 316 316 316 316 317 319 319 318 318 317 317 316 314 308 306 304 301 301 299 298 298 298 299
315 314 309 312 310 313 316 314 315 314 313 312 312 311 313 314 315 315 314 314 314 314 314 314 314 314 315 316 318 319 318 317 315 309 306 303 301 301 299 298 298 298 299 295
320 311 313 311 312 314 315 314 312 313 314 313 311 311 314 315 315 315 315 315 315 314 314 314 314 314 314 316 317 317 317 315 312 308 304 301 300 299 298 298 299 299 297 294
313 311 312 311 312 311 312 314 315 312 313 314 313 313 313 312 308 311 314 315 315 314 314 315 314 314 313 314 315 316 314 310 305 301 299 298 297 297 298 299 299 298 294 293
309 308 308 303 306 309 311 314 313 309 309 314 314 314 314 312 313 314 314 313 313 313 313 312 313 313 313 312 312 313 308 303 300 298 298 297 297 298 299 299 295 294 293 292
312 311 307 312 309 312 314 313 311 310 314 314 314 314 315 315 314 314 312 312 311 312 310 309 310 308 306 307 307 306 302 300 299 298 298 298 300 300 298 294 294 292 291 290
314 312 311 312 311 313 313 315 315 315 314 314 315 316 316 315 314 312 310 308 307 306 305 304 304 303 302 301 301 300 300 299 300 300 301 300 299 296 294 291 290 290 290 290
316 316 313 313 314 315 313 315 314 314 315 316 316 316 316 314 311 309 306 304 303 301 300 300 300 300 299 299 299 299 299 299 299 297 295 293 292 290 290 290 290 290 290 290
314 314 314 312 315 316 316 315 316 315 315 314 314 314 313 312 307 306 302 301 300 300 300 300 300 299 299 298 297 295 292 291 291 290 290 290 290 290 290 290 290 290 290 290
314 313 310 310 314 313 314 312 313 314 312 311 312 308 306 307 305 303 301 301 301 300 299 299 299 297 295 293 292 291 291 291 290 290 290 290 290 290 290 290 290 290 290 290

GFSCGP_850_thetae_021.txt.gz
Theta_e
316 313 314 315 314 316 317 317 317 317 316 318 320 323 325 324 325 325 329 332 331 330 330 329 326 326 326 326 327 326 324 325 326 327 327 324 320 320 318 315 313 311 310 310
314 315 314 315 316 317 318 317 317 316 315 315 314 322 321 322 324 326 328 330 331 331 331 330 329 328 326 324 326 327 325 326 327 327 326 324 321 319 316 314 312 310 310 311
315 316 316 318 317 318 317 318 318 319 315 314 316 319 323 322 322 324 326 329 329 329 330 330 329 329 327 327 324 321 324 325 325 326 325 321 320 317 315 313 311 310 311 311
315 316 318 319 319 318 318 317 317 318 315 317 315 320 318 321 322 321 323 325 327 326 328 329 330 329 328 328 326 317 319 323 326 327 325 322 321 317 315 312 311 310 311 311
317 319 318 318 318 317 318 317 317 319 318 317 318 317 315 318 324 322 321 324 325 326 327 327 328 328 328 328 326 321 323 326 328 327 325 323 319 317 315 314 311 311 311 311
315 318 317 317 318 317 318 318 316 315 316 318 318 317 316 318 322 323 321 322 324 325 325 325 327 328 328 328 327 324 325 326 327 326 324 322 322 320 317 315 313 312 311 310
318 317 318 319 319 318 318 316 318 318 317 318 320 319 317 317 316 317 316 320 323 323 324 324 324 327 328 328 327 327 327 327 326 324 325 323 324 322 318 317 314 312 310 306
316 317 318 319 318 318 318 316 316 319 318 318 320 321 319 318 318 319 319 320 320 322 323 323 325 324 325 326 327 328 328 328 327 326 325 323 326 323 318 316 313 311 306 303
316 318 319 319 319 318 317 317 315 318 316 319 317 319 314 315 318 317 318 320 322 322 324 324 325 326 324 324 325 328 328 328 328 327 327 326 324 321 317 315 312 308 305 301
316 319 320 319 319 318 317 315 316 316 321 322 318 316 316 319 320 319 318 320 322 325 324 324 326 326 325 325 326 327 328 328 327 327 326 322 319 318 315 313 311 306 306 300
317 315 316 320 318 318 317 316 314 315 314 317 316 316 312 316 319 318 317 320 321 324 326 326 326 327 327 328 328 329 329 329 327 326 325 322 318 316 313 310 307 305 301 302
316 315 314 317 317 317 317 317 314 313 315 312 312 315 314 312 313 315 319 321 321 321 324 326 328 329 329 329 329 330 330 328 328 325 323 320 317 314 312 309 308 306 302 300
317 316 315 317 317 317 319 316 316 314 310 315 313 314 312 311 311 315 318 321 321 322 322 327 328 329 329 329 330 330 329 327 326 322 320 317 316 314 310 309 308 304 301 301
316 314 315 317 317 317 319 318 316 315 313 313 312 314 314 314 312 313 315 317 320 323 322 325 328 329 329 330 330 329 328 326 323 320 318 317 316 312 311 309 306 303 301 301
317 317 314 314 315 318 318 318 315 315 314 314 315 314 315 313 311 311 314 316 319 321 323 324 327 328 329 328 327 326 325 324 322 320 318 317 313 312 309 307 303 301 300 298
315 315 316 318 316 316 318 316 315 316 316 314 314 313 310 311 312 312 313 315 316 317 317 319 320 322 322 322 323 324 324 321 319 318 318 314 312 310 307 304 301 299 297 296
315 312 312 315 313 314 313 313 315 315 315 315 315 313 311 312 311 312 313 315 315 316 315 315 315 315 315 316 318 318 318 319 319 317 315 313 311 307 304 301 299 297 296 296
312 311 308 310 310 313 314 314 313 313 312 311 311 311 312 312 312 313 314 314 313 314 314 314 314 314 314 314 315 316 317 316 316 315 312 310 306 304 302 300 297 297 298 298
314 309 310 313 312 313 315 312 312 313 314 312 311 311 313 314 314 314 314 314 314 314 314 314 314 314 314 313 314 316 316 315 314 311 309 307 305 301 298 298 298 298 299 300
310 308 313 308 314 314 313 312 313 311 312 312 311 311 312 311 306 310 313 314 314 313 313 314 314 313 313 313 312 313 314 313 311 308 305 302 299 297 298 299 298 299 299 298
310 307 311 304 308 309 309 312 312 312 311 313 313 313 312 310 311 313 313 313 313 312 312 311 311 312 311 311 311 310 309 306 303 301 299 297 298 298 298 299 299 299 297 294
314 312 308 305 306 313 311 312 310 309 312 314 314 314 313 314 313 311 310 310 310 309 308 307 308 308 306 305 305 305 303 299 299 298 299 300 300 299 300 299 297 295 293 291
313 312 312 311 311 310 313 312 313 315 315 314 314 314 314 313 310 309 308 306 305 305 305 303 304 302 300 299 300 300 298 298 299 299 300 298 298 296 294 293 291 290 290 290
314 313 312 311 313 313 313 315 314 314 314 314 314 315 314 312 307 305 304 303 302 301 300 300 300 300 299 298 299 298 298 297 296 293 291 290 290 290 290 290 290 290 289 289
312 313 312 311 314 314 314 314 314 313 314 315 315 314 312 311 306 305 302 301 300 300 300 300 300 299 297 295 293 292 291 291 291 290 290 290 290 290 290 290 290 290 290 290
312 312 310 310 314 312 313 313 313 314 314 314 314 310 307 308 306 302 301 300 300 300 299 298 295 294 293 292 292 292 292 291 291 290 290 290 290 290 290 290 290 290 290 290

GFSCGP_850_thetae_024.txt.gz
Theta_e
315 312 313 312 313 315 316 315 316 317 315 319 320 324 322 325 326 327 329 331 331 329 328 327 325 325 326 326 324 324 324 323 323 324 324 327 327 328 324 320 320 320 320 316
314 314 312 313 314 316 316 317 316 316 314 315 317 323 323 321 325 325 328 330 331 330 329 328 327 326 326 324 325 325 326 323 324 325 324 326 327 322 320 319 318 317 314 310
315 315 315 316 316 317 317 318 317 317 314 314 317 320 325 322 323 324 326 329 330 330 330 328 328 327 326 323 321 321 323 325 324 324 326 327 325 321 319 317 314 311 310 310
314 314 316 316 316 316 318 316 316 316 314 316 314 315 317 321 321 320 324 326 329 330 330 329 329 328 327 326 324 324 323 324 324 325 326 327 326 322 319 317 315 312 310 310
314 318 317 317 317 317 317 316 316 317 316 316 317 315 314 317 323 323 321 324 327 328 329 329 328 328 327 327 326 326 325 325 324 325 326 326 325 322 320 316 314 312 310 310
314 316 316 316 316 317 316 317 315 314 315 316 317 316 315 317 322 325 323 323 324 326 328 328 328 329 329 328 327 327 327 323 323 325 326 325 326 324 320 316 314 312 311 311
316 316 317 318 318 316 315 316 317 317 317 317 318 318 317 315 315 318 320 323 324 325 326 326 326 327 328 328 327 327 327 325 321 325 325 325 325 324 321 320 320 313 312 311
316 316 317 318 317 316 316 315 316 319 317 317 318 318 317 315 316 317 318 319 320 323 323 325 325 326 326 327 327 327 327 327 322 323 326 325 325 323 321 321 320 317 314 312
314 315 317 318 318 316 316 316 313 316 315 318 315 316 313 313 317 317 317 318 318 318 320 322 324 325 325 325 326 326 327 327 326 326 325 325 324 324 324 321 317 317 313 310
314 316 318 318 318 318 315 314 316 313 320 320 316 315 313 314 318 318 317 318 320 320 320 321 322 323 324 323 324 325 326 326 326 327 326 325 326 325 325 323 317 314 311 309
314 314 314 319 317 317 316 315 313 314 313 316 315 314 311 314 315 315 314 318 320 321 322 323 324 324 324 324 325 326 324 324 325 326 327 325 325 325 324 322 317 313 310 309
315 313 312 316 316 316 315 315 313 314 315 311 310 313 312 310 310 312 315 317 320 320 322 324 324 325 325 325 325 325 325 325 326 326 325 324 323 324 321 318 316 311 310 305
315 313 312 313 314 316 317 315 314 311 309 314 312 314 310 310 311 314 314 317 317 319 321 322 324 325 326 326 327 326 326 326 325 325 324 323 324 322 318 316 314 311 307 302
315 313 312 314 313 314 317 315 314 314 312 313 312 314 313 312 311 311 314 314 316 319 321 322 322 325 327 328 327 327 326 326 327 325 324 323 322 319 316 315 311 308 303 301
314 314 313 312 314 316 316 317 314 314 314 315 315 312 313 312 311 311 312 313 318 320 321 322 323 324 326 327 327 327 327 326 326 325 322 320 317 315 315 312 308 304 302 299
313 315 313 317 316 316 317 315 314 313 314 313 312 312 309 311 311 311 312 315 316 317 317 317 317 317 317 317 318 318 318 318 320 321 320 317 315 314 314 309 304 302 299 298
312 311 312 316 312 314 313 313 314 314 313 314 314 312 309 311 311 310 313 314 314 314 314 314 314 314 314 314 313 313 315 316 316 317 317 315 314 313 312 306 303 300 298 297
309 310 307 309 309 313 314 312 313 312 311 311 311 310 310 310 311 312 312 313 313 313 313 313 313 313 313 313 313 313 315 316 315 314 314 313 310 307 304 303 300 297 297 296
311 308 310 312 312 312 315 312 312 312 312 309 309 310 310 312 313 311 312 312 312 312 313 313 313 314 313 313 313 312 312 314 313 311 309 307 305 305 302 299 297 297 297 297
310 307 311 307 312 313 312 313 311 310 311 309 311 310 311 310 305 308 310 310 311 311 312 313 313 312 312 312 311 310 311 310 309 306 305 303 301 299 298 297 298 298 299 299
310 306 310 303 308 311 310 311 311 312 312 311 313 313 312 308 308 311 310 309 311 312 312 311 311 311 310 309 307 308 306 305 302 301 300 299 299 299 299 299 299 299 299 299
316 313 308 305 307 317 310 311 311 310 310 312 314 314 312 312 312 311 310 310 310 310 308 307 307 306 304 303 304 302 300 297 297 297 298 298 299 300 299 298 297 296 294 292
316 313 312 312 313 311 311 311 312 312 312 312 315 313 313 312 311 310 309 308 307 306 305 303 303 302 300 299 299 299 298 298 299 299 297 294 292 291 291 291 290 290 290 290
311 309 310 311 311 309 313 313 313 313 313 313 314 314 313 313 310 309 307 305 304 302 301 300 300 300 299 298 298 297 296 294 292 291 291 290 290 290 290 290 290 290 290 289
310 311 311 309 313 313 313 313 313 313 313 314 313 313 313 313 308 307 304 302 300 300 299 299 300 299 297 295 294 292 292 291 291 291 290 290 290 290 290 290 290 290 290 290
310 311 311 312 313 313 312 314 313 313 313 313 313 311 309 310 308 304 301 300 299 300 299 298 297 295 293 292 292 292 291 291 290 290 290 290 290 290 290 289 289 288 287 285

GFSCGP_850_thetae_027.txt.gz
Theta_e
314 317 318 317 315 316 317 316 317 318 317 322 323 326 327 328 329 329 329 329 327 322 322 323 321 320 321 322 323 324 323 321 317 319 323 324 325 325 325 325 326 322 322 322
316 318 315 313 314 316 317 317 318 317 314 319 319 323 325 326 328 328 329 329 330 327 326 325 324 324 322 322 323 324 323 322 321 323 324 325 325 326 325 327 324 321 321 321
318 317 314 315 316 317 318 318 318 318 315 316 320 321 326 324 325 326 326 328 329 330 328 329 328 326 324 324 323 323 323 323 322 323 324 324 325 326 327 325 321 319 319 318
316 314 315 316 317 316 319 317 317 317 316 319 315 319 319 326 325 323 325 325 328 329 329 328 327 327 325 325 325 325 324 324 325 323 324 324 324 324 324 321 320 318 316 313
317 317 317 317 318 317 319 317 318 318 317 318 318 319 318 319 327 326 325 324 326 328 328 328 329 327 327 326 325 324 324 324 325 326 324 324 324 325 324 322 319 316 313 311
315 315 317 318 316 316 316 317 317 316 318 321 318 319 320 320 325 326 326 325 326 327 328 328 328 329 328 328 327 326 324 324 324 324 323 324 325 325 325 323 319 316 314 312
316 316 316 317 318 317 317 320 321 321 322 322 318 320 322 320 317 320 323 324 325 327 327 328 328 328 329 328 328 327 326 326 326 326 325 322 326 326 325 323 320 318 318 317
318 318 317 317 318 319 318 320 323 320 322 319 318 322 320 318 317 316 316 317 318 322 324 326 327 327 327 328 328 328 327 327 326 327 326 325 326 325 324 322 319 319 317 318
317 316 315 317 318 318 317 320 316 319 317 322 319 318 317 315 317 319 319 318 318 317 318 321 323 325 326 327 326 327 328 328 327 326 327 324 322 323 324 323 320 317 317 316
317 317 318 318 318 316 317 316 321 319 322 321 319 318 319 318 317 317 319 320 320 321 319 318 319 321 323 324 325 325 326 326 327 327 327 327 324 324 323 323 321 319 317 315
315 317 316 319 320 320 318 318 315 318 318 322 320 319 316 317 317 319 316 315 319 320 321 321 320 320 321 322 323 324 324 324 325 326 326 326 325 324 323 322 323 321 317 315
316 317 318 319 316 316 317 318 317 323 319 316 317 318 314 316 315 314 314 314 317 320 321 321 323 323 323 323 323 323 323 324 324 325 326 325 325 324 323 322 323 322 321 317
316 316 318 317 316 316 319 316 315 314 315 318 324 321 313 313 314 314 313 314 314 316 320 321 323 324 324 324 324 324 325 325 325 324 324 325 325 324 323 322 321 321 318 313
315 315 318 318 318 316 318 317 315 318 320 320 319 319 318 317 315 315 314 314 313 316 319 320 321 323 325 326 326 327 326 326 326 326 326 325 325 324 322 320 319 317 315 308
317 317 314 314 313 315 317 317 316 317 318 321 320 316 317 317 316 313 312 312 316 319 321 321 322 323 325 326 326 326 326 325 324 323 322 322 322 321 319 318 316 313 308 304
314 317 314 315 314 315 317 317 316 316 314 315 315 315 314 312 311 311 311 315 315 316 316 316 316 316 316 316 316 315 315 315 315 315 317 317 317 316 316 314 312 307 303 299
316 315 316 318 313 315 318 316 316 316 315 317 318 318 312 313 312 311 312 312 311 312 313 313 313 313 313 313 313 313 313 314 314 315 315 315 314 313 312 310 308 305 301 298
313 314 313 317 313 321 318 313 315 317 315 314 313 313 312 312 310 310 311 312 311 312 312 313 313 313 313 312 312 312 312 312 313 314 313 312 311 310 309 308 305 300 298 297
312 313 313 319 318 316 314 314 315 316 317 313 314 312 311 310 311 309 310 310 311 312 312 313 313 313 312 312 311 311 310 311 311 311 309 307 306 305 304 302 301 300 300 299
310 310 319 312 319 321 318 314 311 312 317 312 311 312 312 311 317 314 308 309 311 311 311 311 311 311 311 311 310 310 309 309 308 306 304 303 302 301 301 301 301 300 298 298
315 313 317 312 320 317 314 311 311 318 320 312 311 312 312 313 312 312 309 309 310 309 309 309 309 310 309 308 307 308 306 304 301 300 299 299 299 299 298 298 299 299 298 298
320 319 319 313 318 322 311 309 316 317 311 312 311 312 311 311 310 310 308 308 307 308 307 307 308 307 305 304 304 303 301 298 298 298 298 298 299 299 299 297 295 294 292 291
320 318 320 319 322 316 310 314 313 313 312 311 312 312 312 310 309 308 307 305 305 305 305 304 305 303 301 300 300 299 298 298 299 298 296 293 292 291 290 290 290 290 290 290
312 310 317 316 315 313 312 312 312 312 312 312 313 314 312 311 308 306 304 303 303 302 302 301 301 300 299 298 298 297 295 293 292 291 291 290 290 290 290 290 290 290 290 289
313 312 313 313 312 313 313 313 313 313 312 312 313 314 313 311 307 306 304 302 301 301 300 299 299 298 296 294 294 292 292 291 291 290 290 290 290 290 289 288 287 285 284 283
311 313 315 317 314 315 314 315 313 313 313 312 313 312 310 310 308 305 303 301 300 299 299 298 297 296 293 293 292 292 291 290 290 290 289 288 287 286 285 284 283 283 282 281

GFSCGP_850_thetae_030.txt.gz
Theta_e
319 321 320 318 319 320 321 320 320 321 322 324 325 325 329 331 331 331 330 328 327 326 325 326 327 327 327 327 326 326 326 326 326 326 321 320 325 327 326 326 326 326 325 324
320 320 319 319 318 319 321 321 321 321 320 321 323 323 327 331 332 331 331 331 329 327 326 326 326 325 325 326 327 327 327 327 327 325 321 322 324 326 325 325 325 325 324 322
321 320 319 319 320 321 321 321 321 321 320 320 322 322 326 328 330 330 331 330 330 327 327 327 327 327 326 326 326 327 327 328 327 325 323 325 325 324 325 324 324 324 324 321
321 319 319 320 320 320 321 321 320 321 321 321 320 321 322 325 329 330 329 330 330 329 328 328 330 329 328 327 327 327 327 328 328 327 326 324 324 326 325 324 324 324 322 320
320 319 319 320 320 320 320 320 321 322 321 321 321 320 322 324 327 328 328 329 329 328 328 328 329 330 331 329 328 329 329 328 328 328 325 326 326 327 327 323 323 323 321 319
319 318 320 320 320 320 320 321 322 322 322 322 322 321 321 322 322 323 325 326 328 328 328 328 329 330 330 331 330 329 329 329 328 328 324 325 326 327 325 323 323 323 321 318
319 319 319 319 320 320 321 321 322 323 323 323 322 323 321 321 321 322 323 323 326 327 328 329 329 329 330 331 331 330 330 329 328 327 324 324 326 326 323 324 323 324 321 317
320 320 319 320 321 321 321 321 322 323 323 321 321 322 321 321 321 321 321 321 321 325 327 328 329 330 330 332 332 331 329 330 329 326 323 324 325 324 323 322 324 324 322 319
320 319 319 320 321 320 321 322 321 323 323 322 321 321 321 320 320 323 323 322 323 322 322 324 327 329 330 331 332 332 331 330 330 329 327 326 326 325 324 323 324 324 322 318
319 319 319 321 321 320 322 321 322 323 323 322 321 320 319 319 319 320 320 321 322 323 322 321 323 325 327 329 331 331 331 330 330 330 328 327 327 327 326 325 324 323 322 320
319 319 321 322 322 321 321 322 321 322 322 321 321 320 320 319 320 320 320 319 321 322 324 324 323 323 324 326 329 329 329 328 329 330 329 327 327 326 326 323 323 323 322 321
319 319 320 319 320 321 321 321 322 323 322 322 324 321 319 320 321 320 320 318 319 321 323 325 325 325 325 326 327 327 328 328 329 329 329 327 326 326 326 324 323 322 322 321
319 319 320 319 319 320 321 321 322 322 321 321 326 321 320 320 320 320 319 319 317 317 322 324 327 327 325 323 325 326 325 326 327 325 324 324 324 325 325 324 323 322 321 320
318 319 319 320 318 319 321 320 321 321 323 321 321 319 320 320 321 320 320 319 317 319 321 324 326 327 327 327 325 325 325 325 325 325 325 325 324 323 323 322 321 320 319 318
320 319 319 318 318 318 318 318 319 320 320 320 320 320 320 320 321 321 317 317 319 321 322 324 326 326 326 326 325 325 326 326 325 323 321 320 320 320 319 319 318 316 316 314
319 319 320 320 318 318 318 318 318 318 318 318 320 320 320 320 319 317 316 318 319 319 319 319 319 319 318 319 320 317 316 316 315 315 315 316 316 316 315 315 314 313 311 307
320 320 320 319 319 319 320 319 319 319 319 319 321 321 320 320 319 318 318 318 317 315 314 314 314 315 314 314 314 313 313 314 314 314 314 314 314 313 313 311 309 308 304 302
321 321 322 321 319 328 320 319 320 319 319 320 320 320 320 319 318 316 317 316 313 312 311 311 312 312 312 312 312 311 311 311 312 312 312 311 310 310 309 309 307 305 303 302
320 321 322 327 322 320 319 317 319 321 321 321 320 320 318 316 314 313 313 313 311 310 310 310 311 311 311 311 311 310 310 310 310 310 309 308 306 305 304 303 302 302 300 300
317 318 325 320 323 327 321 320 318 319 321 320 319 319 318 315 320 319 310 308 308 308 308 309 310 311 311 310 309 309 308 307 307 306 304 303 302 302 301 300 300 299 299 299
319 320 324 323 325 322 321 318 316 321 322 321 319 318 317 318 318 314 309 307 307 307 308 308 307 308 308 307 307 307 305 304 302 301 300 300 300 300 300 299 299 299 299 298
322 324 324 323 327 326 317 315 321 322 320 319 318 318 317 315 312 309 308 306 306 306 306 306 306 305 303 304 305 304 303 300 299 299 299 299 299 297 296 295 293 292 292 291
322 323 324 323 323 322 316 320 318 319 319 317 317 316 317 311 310 308 307 305 304 304 303 303 303 303 302 302 302 301 299 298 299 298 295 293 292 291 290 290 290 292 292 291
318 316 321 321 321 320 318 318 316 315 316 315 316 316 313 311 309 307 306 304 303 303 302 301 301 301 301 300 299 299 298 296 293 292 291 291 290 290 290 289 289 288 286 285
319 316 320 321 321 316 317 317 317 315 313 313 315 314 312 310 308 307 305 303 303 302 300 299 299 299 297 297 296 294 293 292 291 290 290 290 289 288 286 286 285 284 283 283
316 319 321 324 321 320 321 319 317 315 314 313 314 312 311 309 308 305 304 302 301 299 298 297 297 296 295 294 293 292 291 290 290 289 288 287 286 285 284 283 283 283 282 281

GFSCGP_850_thetae_033.txt.gz
Theta_e
321 322 322 321 320 320 322 322 322 323 325 324 325 326 328 330 330 329 328 328 325 324 324 326 328 325 325 325 324 324 323 324 325 325 324 321 320 322 326 326 327 328 326 324
323 322 321 321 320 320 321 321 321 322 322 322 323 325 326 330 330 329 328 328 327 325 324 325 327 327 326 326 326 325 325 325 325 324 324 321 321 323 326 326 328 328 327 324
322 322 321 319 319 320 320 321 322 322 323 321 322 323 324 326 328 330 329 328 327 326 325 325 325 327 327 327 327 326 326 326 327 327 325 321 321 324 326 327 327 327 325 324
322 322 320 319 320 320 321 321 322 321 321 322 322 324 323 324 327 329 329 328 327 326 326 326 326 325 327 327 328 328 327 327 327 327 325 322 324 324 326 327 327 326 324 324
322 322 321 321 320 321 321 322 322 322 323 323 322 320 322 321 324 326 328 329 328 327 326 326 327 326 326 326 327 328 328 328 328 328 327 324 326 326 326 327 327 324 326 324
321 320 320 320 321 321 321 322 322 322 323 325 322 322 323 322 322 323 325 326 327 327 327 326 327 328 328 328 328 328 328 327 328 329 329 327 327 327 326 328 328 326 324 323
321 321 320 320 321 321 321 322 323 324 326 325 323 322 322 322 322 322 322 324 326 327 327 326 326 327 328 330 331 330 329 328 329 329 329 329 328 328 328 329 327 324 321 322
321 321 320 321 321 322 322 322 323 327 329 327 323 322 321 322 322 321 321 321 322 325 327 327 327 327 328 329 331 332 331 330 329 329 329 329 329 329 329 328 326 324 322 322
321 321 321 321 321 321 322 324 322 322 324 325 324 322 322 322 321 321 322 322 323 323 325 327 327 328 328 329 331 332 333 331 332 331 330 329 329 328 329 328 325 322 320 322
320 321 320 320 321 321 322 323 324 324 328 326 322 322 322 320 320 320 320 322 322 323 325 324 325 328 328 330 331 333 334 333 332 332 332 331 330 329 327 326 325 324 322 322
320 321 321 322 321 321 322 323 323 323 324 326 324 323 322 321 321 321 321 319 320 322 325 326 324 325 327 329 331 333 334 334 334 333 333 332 330 329 329 327 325 325 324 323
320 321 323 322 321 320 322 322 323 326 325 326 327 325 321 321 321 321 320 320 320 322 323 326 327 326 326 327 329 331 333 333 333 333 332 331 330 328 328 327 325 324 323 321
321 321 323 322 321 321 321 323 324 323 324 325 330 323 321 321 321 320 320 320 320 320 322 325 328 328 328 328 329 330 331 331 331 331 332 331 330 329 327 326 324 320 320 320
320 320 320 324 321 320 321 321 322 323 328 325 325 322 322 321 321 321 320 320 321 320 321 323 328 329 329 329 329 330 330 330 330 330 328 328 327 326 325 324 320 321 320 319
321 322 321 320 320 319 319 320 320 322 322 324 323 322 321 321 321 320 321 321 320 321 323 324 327 329 329 329 329 329 328 327 326 325 325 325 323 321 320 319 317 315 314 315
321 322 320 319 319 318 318 319 319 320 321 321 321 321 321 320 320 320 320 320 321 322 323 325 328 328 328 328 327 325 323 321 321 320 319 318 317 316 315 313 313 314 313 312
320 323 322 322 319 319 322 319 319 319 319 320 321 320 320 320 321 321 320 320 321 322 322 322 321 321 320 320 319 318 317 317 316 315 314 313 313 312 313 312 311 310 308 305
322 322 324 324 325 326 321 320 320 320 320 320 319 319 320 321 321 320 320 321 320 319 319 318 317 316 316 316 315 314 314 313 312 311 311 310 309 308 307 306 307 305 304 302
321 324 325 327 323 320 319 320 321 320 320 320 320 320 321 321 320 320 319 320 318 316 316 315 315 314 313 312 312 311 310 310 309 308 308 307 307 306 304 303 302 302 301 301
320 324 326 325 324 325 321 321 320 320 323 320 321 321 321 320 322 321 317 317 315 314 313 313 312 312 311 311 310 309 309 308 307 306 306 305 305 304 303 301 301 302 300 300
322 323 327 327 325 322 320 321 321 324 323 321 321 321 320 320 321 320 316 314 313 312 312 311 311 311 310 309 309 308 307 306 305 304 304 303 302 301 301 300 299 298 298 297
323 324 326 326 327 328 321 321 321 322 320 322 322 320 319 319 319 316 314 312 312 311 310 310 309 309 308 308 307 306 305 304 303 302 301 301 300 298 298 297 296 295 295 295
319 323 324 323 324 322 321 320 320 320 321 323 321 319 319 320 317 314 313 311 310 310 309 309 308 307 307 306 306 305 303 302 301 299 297 296 295 295 295 295 294 294 294 293
320 318 322 323 323 322 322 321 321 321 321 321 320 319 319 319 316 314 312 311 310 309 309 308 307 306 305 304 303 301 300 299 298 297 295 294 293 292 292 291 290 290 289 288
318 320 320 321 320 321 321 321 321 321 320 319 318 319 319 317 315 313 311 310 310 309 307 306 304 303 301 300 299 298 297 296 295 293 292 291 290 290 289 288 287 286 286 284
317 318 322 324 320 322 322 321 321 321 319 318 317 318 318 316 314 312 311 310 308 307 305 304 302 300 299 297 296 295 294 293 292 291 290 289 288 287 287 286 286 285 284 283

GFSCGP_850_thetae_036.txt.gz
Theta_e
318 319 319 320 321 320 320 322 324 324 325 324 326 329 331 328 329 328 326 325 325 325 327 326 324 324 321 318 319 317 317 318 314 319 321 323 320 319 317 322 324 324 324 326
320 322 321 321 322 321 320 320 322 323 324 323 321 328 329 329 330 326 327 326 325 325 326 326 325 325 325 320 322 322 320 319 321 322 320 321 321 318 317 323 326 323 324 326
322 323 323 321 321 321 320 320 320 322 323 323 322 321 328 329 328 328 327 328 327 324 326 326 326 325 325 325 323 324 325 324 323 324 321 324 322 320 321 324 324 322 327 326
321 322 322 321 320 320 320 320 321 323 322 321 323 324 324 327 327 329 328 328 327 326 325 326 326 328 326 326 326 325 324 324 324 325 324 326 323 320 323 325 326 325 325 327
321 322 321 322 319 320 320 322 322 322 321 323 323 324 322 323 324 327 329 328 328 326 326 325 325 327 328 327 327 326 326 326 326 325 325 327 324 321 322 326 328 327 328 326
321 321 321 322 320 321 321 322 323 323 322 325 325 323 322 323 323 324 327 328 328 327 326 327 326 325 327 328 328 328 327 327 326 327 326 327 325 323 325 326 327 326 325 324
320 320 321 321 320 321 321 322 323 323 324 327 324 324 324 323 323 323 326 325 325 327 327 327 327 326 326 326 327 327 328 328 328 328 328 328 326 326 325 326 327 328 327 324
321 321 321 321 320 321 321 322 325 326 330 328 326 326 322 323 323 322 322 324 325 328 327 327 326 328 328 327 327 326 327 327 328 328 328 329 327 327 329 327 327 328 326 324
322 321 320 321 321 321 322 322 322 323 327 329 328 327 322 323 322 321 321 322 322 322 328 327 327 326 328 329 329 329 329 329 328 328 328 328 329 329 325 320 326 328 326 325
321 322 321 321 321 321 321 322 326 325 327 328 324 325 324 323 322 321 320 321 322 324 324 326 328 327 327 328 331 330 331 331 331 330 330 329 330 330 324 322 326 327 325 325
320 322 322 322 322 321 321 322 323 326 325 330 328 325 324 324 322 322 322 320 320 322 325 325 325 325 327 329 329 331 333 333 332 332 332 331 330 329 327 326 328 326 326 325
320 321 322 321 321 321 321 322 322 325 326 327 332 326 323 323 322 322 321 321 320 321 323 325 326 325 326 327 329 332 333 333 334 334 333 331 331 331 330 328 328 328 326 323
320 320 322 323 322 322 321 321 322 324 326 328 332 326 324 323 322 321 321 320 320 321 321 325 327 327 326 327 328 330 331 334 335 333 333 331 330 330 327 328 327 325 323 320
321 321 321 323 322 323 323 321 321 325 328 327 327 325 323 323 322 322 321 321 320 321 320 322 327 328 328 329 329 330 331 332 332 332 332 331 332 329 328 325 324 322 321 320
322 322 321 321 321 321 321 321 320 321 326 327 326 326 325 324 322 321 321 322 321 320 321 322 326 329 329 329 330 331 331 331 331 331 329 329 328 327 324 322 321 318 318 317
322 322 321 321 321 320 320 320 321 320 320 321 322 323 322 323 321 321 320 321 321 321 322 323 325 330 330 330 330 330 329 329 327 327 326 326 323 320 318 316 315 314 314 313
322 323 322 324 322 320 320 320 320 320 321 321 321 323 322 322 321 320 321 320 320 322 323 325 328 329 329 329 328 325 324 322 322 321 320 318 316 316 315 314 313 312 311 309
320 323 322 324 322 323 320 320 319 319 320 320 320 320 320 320 320 321 321 321 321 323 324 325 324 324 324 322 320 319 318 317 316 315 314 313 312 311 310 308 309 309 306 304
315 320 325 325 324 321 319 320 320 321 321 320 320 321 320 319 319 321 320 320 322 322 322 321 320 319 318 317 316 315 314 313 312 311 310 309 309 308 307 306 305 304 303 302
314 320 325 325 325 325 322 321 320 320 322 321 321 321 321 321 324 323 320 321 321 320 319 317 316 315 314 313 312 311 311 310 309 309 308 307 306 305 305 303 303 302 301 300
313 319 325 324 325 324 321 320 319 322 323 322 321 321 322 324 323 321 320 320 318 317 316 315 314 313 312 311 311 310 309 308 308 307 306 306 305 305 303 302 301 300 299 299
318 321 325 325 324 324 322 320 321 323 322 321 321 322 320 319 320 320 319 317 316 315 314 313 313 312 311 310 310 308 307 306 306 306 305 304 303 301 300 298 297 298 297 296
318 317 323 321 324 323 319 320 321 321 322 321 322 322 321 321 320 318 317 316 315 314 313 312 311 310 310 309 308 307 306 305 304 303 302 300 298 297 297 296 296 295 295 295
317 315 317 316 320 321 322 322 321 321 322 321 321 322 321 321 319 317 316 314 313 313 312 311 310 309 309 308 307 306 304 303 301 299 297 296 295 294 293 292 292 293 292 290
316 317 318 318 316 314 317 318 321 322 321 322 321 320 320 321 319 316 315 314 312 311 311 310 309 308 307 306 304 303 301 299 298 297 295 294 293 291 291 290 289 289 288 286
315 316 318 319 318 320 320 319 320 321 320 322 320 319 319 320 319 316 314 313 312 311 310 309 307 305 303 302 300 299 298 297 295 293 293 291 290 289 289 289 288 287 286 284

GFSCGP_850_thetae_039.txt.gz
Theta_e
317 315 314 314 315 318 318 318 319 321 323 325 327 325 321 322 328 329 325 326 328 325 325 321 321 321 321 320 319 318 318 319 318 317 316 315 316 317 317 318 322 320 323 321
316 317 316 317 318 319 320 319 317 319 323 323 325 325 321 323 327 326 325 326 328 325 324 323 321 321 319 317 317 315 315 314 314 313 314 314 315 315 316 320 320 320 321 323
317 318 318 319 320 321 320 319 318 319 321 321 321 329 329 327 325 328 325 325 326 326 325 324 324 321 317 316 315 316 315 313 315 316 316 317 320 320 319 316 315 321 324 321
318 319 319 321 322 320 319 318 319 320 320 320 319 320 330 327 328 327 326 325 324 327 326 326 325 324 319 318 317 316 316 315 315 319 319 320 320 321 320 315 317 322 323 321
319 319 320 321 321 320 319 319 321 321 321 320 320 320 320 327 329 327 325 326 326 325 326 326 326 326 325 322 320 319 318 317 319 320 321 320 318 322 321 320 320 321 324 323
318 320 319 319 320 319 318 322 322 321 320 319 319 322 321 327 327 328 326 327 326 325 325 325 325 326 325 326 325 323 321 322 321 320 322 324 324 325 323 321 321 325 325 326
318 318 318 319 319 319 318 320 321 320 320 319 325 325 322 319 321 322 327 327 326 326 325 325 326 326 326 326 327 326 325 324 324 324 324 322 324 326 325 321 321 323 327 326
318 319 319 319 319 320 319 319 321 323 322 324 324 325 323 322 321 322 327 327 327 326 325 325 325 325 326 326 326 327 327 326 326 326 326 326 325 325 327 323 323 326 326 323
318 319 319 318 319 319 319 319 319 321 327 325 325 325 324 321 320 320 321 325 326 324 326 326 326 325 325 325 326 326 326 326 326 327 327 327 327 326 326 326 324 322 324 322
318 320 319 319 319 318 318 320 321 322 326 326 326 326 325 323 320 319 317 320 323 324 326 327 326 326 326 326 326 326 326 326 326 325 326 328 328 328 328 327 327 324 320 321
316 317 319 320 320 319 319 319 321 323 324 324 322 322 320 322 320 318 316 320 322 323 325 326 327 327 327 326 326 326 327 327 327 328 327 327 328 328 329 329 327 324 323 323
317 318 318 318 320 319 318 319 319 323 324 324 323 322 320 320 320 320 319 319 321 323 324 324 324 325 325 328 328 328 328 328 327 323 328 328 329 329 329 329 328 326 323 326
317 318 318 319 318 318 319 319 320 320 320 322 321 323 318 319 319 320 319 320 320 322 323 324 324 322 323 325 327 331 330 330 329 328 324 329 329 328 321 324 327 326 326 325
319 318 317 318 318 319 320 320 319 319 320 321 320 322 322 322 321 319 321 320 320 320 321 325 325 323 322 324 327 332 333 332 331 331 331 331 331 330 330 329 328 326 326 324
321 320 317 317 318 320 321 321 320 320 321 323 323 323 322 322 321 321 321 321 321 320 320 325 326 326 326 326 328 329 331 332 331 331 332 331 331 331 329 327 325 324 322 320
320 320 318 319 318 319 319 320 320 319 319 323 322 322 321 322 320 320 320 321 321 320 320 321 325 328 328 329 329 330 331 331 330 330 330 330 330 329 327 323 322 318 317 315
318 318 319 318 318 318 318 319 319 319 319 319 321 321 321 320 320 320 320 320 320 321 321 322 327 329 329 329 329 330 330 330 329 329 328 328 326 325 322 316 314 312 312 312
313 314 318 316 319 321 318 318 318 317 318 318 317 318 317 317 320 320 320 320 319 321 322 323 327 330 330 330 329 329 329 328 327 326 325 324 322 318 315 314 313 313 312 311
314 312 316 319 320 320 320 318 317 317 317 318 317 317 316 318 318 320 320 320 320 321 323 324 328 329 329 329 328 328 326 323 322 322 319 315 314 313 312 311 310 308 307 305
313 310 313 318 321 321 319 318 318 319 317 318 318 317 317 317 316 316 320 320 321 322 323 324 325 325 325 324 323 321 319 317 315 314 312 311 310 309 309 308 307 304 303 302
310 310 312 314 317 317 319 318 319 319 317 319 319 320 320 317 318 320 320 320 321 322 322 322 321 321 319 318 317 316 314 313 311 310 309 308 308 307 307 305 303 302 301 300
313 314 316 317 318 320 316 319 319 316 318 319 319 319 320 319 320 320 320 320 320 320 320 319 318 317 315 314 313 312 310 309 309 308 307 307 306 305 305 303 301 299 299 298
315 313 315 319 317 316 314 316 318 318 320 321 319 319 321 320 319 319 319 319 319 318 317 316 315 313 312 312 311 310 309 308 307 307 306 305 304 302 299 297 297 297 296 295
315 315 315 313 313 315 314 315 316 320 320 320 321 321 321 320 319 319 319 318 317 316 315 314 313 312 311 310 310 309 307 306 306 305 304 301 299 297 297 296 296 296 295 295
315 315 316 315 314 314 315 315 314 315 318 318 320 321 320 321 319 319 318 317 315 314 313 312 312 311 309 309 308 307 306 305 304 302 298 297 297 296 296 295 294 294 293 292
312 314 314 314 315 316 317 316 315 318 318 317 319 320 319 319 320 319 317 316 314 313 312 311 310 309 308 307 305 304 303 302 299 297 296 295 294 292 292 291 290 288 286 285

GFSCGP_850_thetae_042.txt.gz
Theta_e
316 314 314 313 312 314 315 316 315 316 320 325 324 323 321 325 329 326 324 323 324 326 326 323 322 322 321 321 321 320 319 319 317 317 317 317 315 313 313 315 315 316 319 318
315 316 315 315 315 315 316 316 317 316 320 321 323 324 321 323 326 328 324 324 323 325 326 323 320 322 321 321 319 319 319 318 316 315 315 314 313 313 314 315 315 315 318 319
315 316 316 316 316 317 317 317 317 316 320 319 323 324 324 322 325 327 328 325 325 327 325 323 320 320 321 320 320 319 318 318 316 314 315 316 316 316 317 315 315 316 321 321
315 316 316 317 317 317 318 319 317 317 319 318 317 319 327 324 324 324 326 324 326 326 325 325 321 319 318 318 319 318 319 320 318 317 317 317 316 316 315 316 316 318 320 320
318 317 317 317 318 318 319 319 317 320 319 319 318 317 316 325 326 324 324 323 325 326 326 325 324 322 318 317 317 316 318 318 315 314 314 315 315 315 315 316 316 318 320 316
317 318 317 317 318 318 318 319 319 319 318 319 319 318 319 325 325 324 325 323 324 325 326 326 325 324 321 317 317 316 316 316 316 318 315 314 314 314 315 315 316 315 313 316
318 318 318 317 317 318 317 317 319 320 320 320 320 323 320 320 322 324 325 324 323 325 325 325 325 324 324 318 317 316 315 316 317 317 318 319 318 319 319 315 318 320 319 319
315 317 317 317 317 318 317 317 318 321 321 320 323 322 320 321 321 323 326 326 326 324 325 325 325 325 325 324 322 319 317 316 316 317 319 319 319 320 318 318 322 324 321 319
316 316 316 317 317 317 318 317 317 318 322 322 321 321 320 320 319 318 321 324 326 326 324 325 325 325 325 325 324 323 324 323 320 318 318 319 319 321 322 323 324 325 323 321
315 317 317 317 317 317 318 317 319 318 321 324 323 323 320 321 321 319 318 324 324 325 325 325 325 325 325 325 325 325 324 324 323 324 322 323 324 324 324 323 324 325 323 322
314 315 316 316 318 317 317 317 319 318 320 321 322 320 318 320 320 322 319 318 324 324 326 325 324 325 325 325 325 325 325 326 325 325 325 324 325 325 325 326 326 326 324 325
317 314 316 316 316 316 316 318 318 319 323 320 318 321 318 318 317 319 319 319 320 322 323 323 324 325 325 325 325 326 326 326 326 326 326 326 326 326 327 326 326 325 325 324
319 319 316 317 316 316 316 317 318 319 319 321 321 321 319 317 316 318 319 319 320 323 324 325 325 325 325 325 325 325 325 326 326 327 327 327 325 322 327 326 324 324 326 324
319 321 320 318 317 316 318 318 317 318 317 318 319 320 321 320 318 318 319 319 319 323 324 324 324 324 324 325 326 327 327 327 326 326 327 326 324 321 323 327 327 324 322 325
320 321 319 320 319 316 317 318 318 318 318 319 318 320 320 318 319 319 321 320 320 320 323 323 323 323 324 322 323 324 326 328 328 327 327 327 326 324 327 328 327 325 324 324
315 319 315 316 318 318 316 317 318 319 318 318 318 319 319 320 320 320 320 321 320 320 320 321 325 323 324 323 323 323 326 329 331 329 329 329 329 329 327 326 327 325 324 322
315 314 314 315 316 317 316 316 317 319 318 319 319 319 319 319 319 318 320 321 320 321 320 320 323 324 325 325 325 325 327 329 330 330 331 329 328 326 327 326 323 321 319 317
313 312 312 314 315 321 318 316 316 318 317 316 316 316 317 319 320 320 320 320 321 321 320 320 320 323 325 327 328 328 329 330 330 329 328 327 326 324 323 322 320 319 315 311
313 312 313 315 317 318 318 317 317 316 317 316 316 315 314 317 317 318 319 320 320 320 320 320 321 321 326 328 329 329 328 328 328 327 325 324 323 321 318 316 314 312 312 311
310 311 313 313 314 320 316 317 317 317 316 315 316 316 315 316 313 312 319 320 320 320 319 320 322 326 328 328 328 328 328 326 325 324 323 321 319 317 314 313 311 310 309 306
310 309 313 313 314 316 317 315 317 319 317 316 317 317 316 314 316 319 319 320 320 319 321 322 323 326 328 329 329 328 327 324 322 321 319 316 313 312 310 309 308 307 304 303
311 311 311 313 314 317 315 316 319 316 317 320 319 319 318 318 320 320 319 320 320 321 322 323 324 327 327 327 326 324 322 320 318 315 313 311 309 308 307 306 304 303 302 301
312 312 312 313 313 316 315 314 315 318 319 318 318 319 319 319 319 320 320 320 320 320 321 322 323 322 321 320 320 319 317 315 313 311 309 308 307 306 305 304 303 301 300 300
310 311 314 315 314 313 314 315 315 314 315 317 317 319 320 318 319 320 320 320 320 321 320 320 320 318 316 315 315 314 313 311 310 308 307 306 305 304 302 301 299 298 298 297
311 313 314 314 313 313 314 313 315 312 314 315 316 318 319 319 320 318 319 319 319 319 318 318 317 315 313 312 311 310 310 309 308 306 305 304 302 300 298 298 298 297 296 295
311 312 313 312 311 311 311 312 313 314 314 317 315 317 318 318 319 319 317 316 317 316 315 314 313 312 311 310 309 308 307 307 306 305 302 300 299 298 296 295 294 293 293 292

GFSCGP_850_thetae_045.txt.gz
Theta_e
314 313 313 312 312 313 314 315 314 313 313 319 321 320 319 323 328 326 326 324 323 324 325 324 320 322 321 321 320 321 322 321 319 317 317 319 318 322 318 316 317 318 320 319
314 315 313 313 313 313 314 314 314 314 315 317 319 321 319 321 327 327 324 324 323 324 325 325 321 322 321 321 321 320 320 321 318 315 317 317 317 318 317 315 315 315 316 316
315 315 314 314 314 315 315 315 315 316 315 319 322 321 322 320 324 327 327 325 323 323 325 325 323 320 321 321 321 320 320 320 319 317 317 316 317 316 316 315 315 315 315 316
314 316 315 315 315 314 315 315 316 317 316 318 317 319 316 321 321 324 326 327 325 324 324 325 324 320 319 320 321 320 319 319 318 318 318 318 318 317 315 314 314 315 315 315
318 315 314 315 316 315 316 316 317 317 315 317 317 315 315 322 323 323 323 325 326 327 326 326 325 324 318 318 319 320 320 319 319 318 317 316 315 316 316 315 314 313 314 315
316 316 314 314 315 315 316 317 316 317 316 319 317 316 316 321 322 322 322 323 324 326 327 326 326 324 321 317 317 318 319 319 319 318 317 315 314 315 316 315 316 315 314 315
316 317 316 317 317 316 316 316 317 317 318 320 317 320 318 316 318 321 321 323 324 325 326 326 326 325 324 320 317 317 317 318 319 318 316 317 316 317 317 317 316 315 315 315
314 315 316 316 317 317 315 315 316 320 319 317 320 322 319 317 318 320 321 323 324 325 325 325 326 326 325 323 319 317 316 316 317 317 315 315 316 317 316 315 315 315 315 315
313 314 314 315 315 316 316 316 315 316 318 319 318 318 317 318 317 317 319 324 324 325 324 325 325 325 325 324 323 318 316 315 316 316 317 317 315 315 316 315 315 314 315 316
314 316 315 315 315 314 316 315 317 316 319 323 320 322 319 318 317 318 316 318 323 325 325 324 324 324 325 325 324 323 319 317 316 315 316 317 318 317 316 315 316 317 318 318
312 314 314 314 316 315 315 315 317 316 316 318 319 317 316 317 317 317 315 319 322 323 324 325 325 325 325 325 324 324 323 321 318 317 316 316 316 317 317 318 319 319 320 322
318 313 314 315 315 314 315 315 316 318 318 318 316 319 317 316 316 316 317 320 320 321 325 325 325 326 325 325 325 324 324 324 324 321 320 319 318 318 320 321 322 323 323 323
318 319 317 315 315 314 313 313 314 317 316 318 319 318 317 316 317 317 317 318 320 319 319 323 325 325 325 325 325 325 325 325 325 324 323 322 323 323 324 324 321 323 324 324
318 319 321 322 319 318 318 317 315 316 316 316 318 318 318 318 316 316 318 320 318 320 320 321 322 322 323 323 324 324 325 325 325 325 325 324 324 325 325 325 324 325 325 325
317 317 317 316 315 316 316 319 318 316 316 317 317 317 317 317 317 316 320 320 318 319 319 323 324 323 322 323 323 324 325 325 325 325 325 325 326 326 326 326 326 324 326 327
316 314 315 314 315 314 315 315 316 317 315 315 316 316 316 317 318 317 318 320 320 319 320 322 324 323 322 323 322 322 323 324 325 326 326 325 326 327 327 326 324 323 325 326
314 314 314 313 312 313 313 315 315 316 316 317 318 317 316 317 317 317 319 319 320 320 320 320 321 322 323 322 322 321 322 321 323 325 327 326 326 326 326 326 324 323 324 325
311 311 311 313 312 313 310 312 312 315 316 315 316 316 316 316 318 319 319 321 321 322 322 320 320 320 321 323 324 323 324 324 325 327 328 329 327 327 327 325 325 326 324 323
310 309 311 310 312 312 309 313 315 314 316 315 315 315 314 318 315 314 317 319 320 320 320 320 321 321 320 323 324 325 326 326 327 328 328 328 328 326 325 325 325 323 322 319
311 310 307 312 310 310 307 313 314 316 319 315 318 314 314 315 314 313 318 318 318 319 321 320 321 321 319 321 326 327 327 327 328 329 329 327 325 325 325 324 322 320 318 315
311 310 314 314 314 310 311 313 315 319 316 316 319 317 316 313 315 318 319 318 318 319 320 320 319 319 320 323 326 327 328 328 328 327 326 326 324 323 322 320 317 314 312 310
310 311 310 312 314 314 312 316 316 315 313 316 318 318 318 319 318 317 318 318 319 319 319 319 318 320 323 325 327 327 327 326 325 324 323 321 319 317 315 313 312 309 308 305
309 307 308 310 310 311 316 316 313 314 314 316 317 317 318 319 319 318 318 318 318 319 319 320 321 323 325 327 327 326 325 323 321 319 316 314 311 309 307 306 305 303 302 301
308 309 310 311 311 311 312 312 313 315 315 314 315 316 318 318 318 318 318 318 318 321 321 322 324 325 325 326 324 323 322 319 316 313 310 308 306 305 303 302 301 301 300 300
306 309 310 310 311 312 313 313 313 314 315 314 315 316 317 318 318 318 318 318 318 318 318 320 322 323 323 321 319 317 316 314 311 309 307 305 304 303 301 300 299 299 298 298
308 309 310 309 311 310 312 313 314 314 314 313 315 314 315 316 317 318 318 317 317 317 316 316 317 318 317 314 313 312 311 309 309 307 305 304 303 301 300 299 297 296 295 294

GFSCGP_850_thetae_048.txt.gz
Theta_e
314 312 313 311 311 311 311 314 313 312 312 315 313 314 315 325 328 327 327 325 324 324 323 324 320 320 323 323 322 323 324 324 322 319 323 322 317 316 315 315 320 319 318 317
312 314 312 312 311 312 313 313 312 312 313 313 313 316 316 320 325 327 327 327 324 323 324 324 323 319 321 321 321 322 323 323 322 319 323 320 318 318 315 318 321 318 320 319
314 314 312 313 312 313 312 312 313 313 313 315 319 318 320 320 321 325 328 328 326 323 323 324 324 321 321 320 321 320 321 322 322 322 322 320 318 317 315 319 319 317 316 315
315 315 313 313 314 313 313 312 314 314 315 317 317 318 315 316 320 322 324 327 327 326 323 323 325 324 319 320 321 320 320 321 321 321 320 319 317 315 316 319 316 316 316 315
315 314 315 314 314 313 314 313 314 315 315 315 315 315 314 321 320 320 319 323 325 326 326 324 324 325 322 319 320 320 320 319 320 320 318 318 317 318 317 319 316 314 315 315
314 314 313 315 314 313 315 316 316 315 314 316 316 315 315 316 320 319 319 321 322 323 326 327 325 325 325 320 319 320 320 319 320 319 319 317 317 316 317 317 316 316 315 315
314 316 316 315 316 314 315 314 317 317 317 319 315 314 316 315 314 317 317 320 322 322 323 326 326 326 326 324 318 318 319 319 319 319 319 318 318 318 317 316 316 315 315 314
313 313 315 315 316 316 314 314 316 320 319 317 317 319 319 316 316 317 319 321 321 322 322 323 325 326 326 325 323 317 316 318 319 319 318 318 318 318 317 316 316 316 316 315
313 314 313 314 315 316 316 315 315 315 316 317 316 316 316 317 316 316 317 319 320 321 322 323 324 326 326 326 325 323 318 315 316 317 317 317 317 317 317 316 315 316 317 316
313 315 314 315 314 314 315 314 316 314 319 321 317 319 317 318 317 315 314 316 319 323 323 323 325 326 326 325 325 325 323 321 316 315 316 317 316 315 316 316 316 317 316 316
311 313 313 314 315 314 314 315 315 315 314 317 318 316 315 316 315 316 315 318 318 320 324 324 324 325 325 325 325 325 324 323 322 317 315 316 316 316 316 315 315 315 315 315
317 312 312 313 313 313 313 315 314 316 317 316 313 317 316 314 314 315 316 319 320 320 321 322 323 323 324 324 324 324 324 324 324 323 318 316 316 315 316 316 316 320 319 317
317 318 317 316 314 315 316 314 315 313 313 314 316 316 315 314 313 316 316 320 319 318 319 321 322 323 324 324 325 325 325 325 324 324 323 321 318 317 317 316 316 317 318 319
316 318 316 320 319 317 318 315 315 317 313 314 315 315 314 316 315 314 317 320 320 320 318 318 319 321 323 324 325 325 324 324 324 324 324 323 322 322 320 320 320 319 318 319
314 314 316 318 317 315 315 313 314 314 315 316 316 314 314 314 314 316 319 319 319 320 319 319 320 320 321 323 324 323 323 323 323 324 324 324 324 324 323 323 323 323 323 323
313 312 314 314 316 315 313 313 313 315 315 315 315 314 312 314 315 315 317 318 319 319 319 320 319 320 322 322 321 322 321 321 322 323 323 324 324 324 324 324 324 324 324 324
312 313 313 313 312 312 311 311 313 313 312 314 315 314 313 314 314 314 317 318 319 320 320 320 320 320 321 322 321 321 321 321 322 323 324 324 324 324 325 325 325 325 325 325
311 310 308 310 310 312 308 310 311 310 312 312 312 312 314 314 317 319 318 318 318 318 319 320 321 321 320 321 321 321 322 322 322 324 324 324 324 325 325 325 325 326 325 325
309 307 306 308 311 310 308 308 309 313 309 312 310 313 316 316 313 314 317 318 318 317 318 319 320 321 321 321 320 321 323 323 323 324 325 325 326 326 325 325 325 325 324 322
308 307 309 310 309 307 306 311 314 314 311 314 315 316 316 316 313 314 317 317 318 319 319 318 317 318 319 320 320 319 323 324 325 326 326 327 328 327 325 323 322 321 321 320
311 311 313 311 313 309 308 310 314 313 309 314 313 314 315 315 314 316 318 317 316 317 318 319 318 319 319 319 319 319 322 325 326 327 328 328 327 325 324 323 322 320 319 317
309 308 310 311 313 310 309 315 313 311 313 313 313 314 315 315 315 317 316 316 316 316 318 318 317 318 318 318 319 321 325 326 327 328 328 326 325 323 323 321 319 316 314 312
308 306 307 308 308 308 313 315 315 315 312 313 314 313 313 314 315 317 315 316 317 317 318 318 318 318 319 321 323 325 326 326 326 326 325 324 323 320 318 315 313 311 309 308
307 306 307 308 308 308 310 311 312 312 313 313 313 313 313 314 315 317 316 315 317 318 319 320 320 321 322 323 324 325 325 324 324 323 322 320 318 315 312 310 309 308 306 304
304 306 308 308 307 309 310 311 311 312 314 313 314 313 313 314 316 315 316 315 315 317 317 319 320 320 319 319 322 322 323 322 320 317 315 313 311 308 307 304 302 302 301 300
306 307 307 306 306 307 308 310 309 310 311 311 313 313 313 312 313 314 315 313 313 314 314 316 315 318 316 316 317 317 316 314 313 312 309 307 306 304 303 302 302 300 299 298

GFSCGP_850_thetae_051.txt.gz
Theta_e
314 315 315 314 316 314 314 314 315 314 314 315 316 317 318 319 327 328 328 326 325 323 322 321 321 320 322 322 324 323 323 322 322 322 321 319 318 319 318 317 319 318 317 316
314 317 315 313 313 314 314 315 316 314 313 314 317 319 320 320 326 327 328 328 326 324 323 323 323 319 320 321 322 323 323 324 322 322 320 319 318 317 317 317 318 320 316 316
317 316 314 314 313 314 315 316 315 316 314 315 318 320 319 320 321 323 327 327 327 325 323 323 323 322 319 321 321 321 322 324 322 322 318 317 318 321 321 319 320 318 316 316
315 315 314 314 315 315 316 314 315 314 315 315 318 321 320 319 319 321 323 326 327 326 325 323 324 324 320 319 320 320 321 322 323 322 322 321 321 319 319 317 316 318 319 318
315 315 315 314 315 314 316 314 315 315 316 317 318 320 320 317 321 321 322 322 325 325 326 324 323 323 324 319 319 320 320 321 322 322 321 321 321 317 316 315 315 315 316 316
313 314 315 315 314 314 315 316 316 316 318 321 319 320 320 320 321 321 320 320 321 324 324 326 325 323 324 321 318 320 320 320 321 322 321 322 321 318 317 317 315 315 320 317
316 315 315 314 316 314 316 317 318 320 321 322 317 318 321 319 318 319 321 320 319 321 322 324 325 324 324 324 320 318 320 320 321 321 321 322 322 319 317 316 315 315 318 316
315 316 317 316 317 317 316 317 320 321 322 320 316 320 320 319 318 316 317 318 319 320 321 322 322 326 326 325 324 318 318 319 319 320 321 320 320 320 319 317 316 316 318 316
315 314 314 315 316 317 316 317 317 318 317 320 320 318 318 319 320 319 319 318 320 319 318 321 322 323 326 326 325 323 318 316 318 318 319 319 319 319 318 317 317 317 317 318
314 316 314 314 315 315 317 316 318 317 320 320 319 319 320 319 320 321 320 319 319 318 319 321 321 322 323 326 325 325 323 320 315 316 317 317 317 319 319 319 319 318 317 317
313 315 314 315 316 316 316 317 317 318 318 320 320 320 319 320 320 320 319 319 319 320 319 321 322 322 323 325 326 325 325 323 320 316 315 316 317 317 317 317 317 317 317 317
317 313 315 314 313 313 314 316 317 319 318 318 318 319 316 317 318 317 318 319 318 320 320 320 321 323 323 324 325 325 325 325 324 322 317 315 315 316 316 316 315 316 316 316
317 317 319 317 315 316 318 317 316 316 314 317 319 317 316 316 317 317 317 318 319 320 319 319 320 321 322 323 324 324 325 325 325 324 322 320 317 316 316 315 315 315 315 315
315 318 317 318 317 317 317 315 314 316 319 318 318 318 316 317 316 317 317 317 317 318 319 319 318 320 321 322 323 324 324 324 324 324 324 323 322 322 320 318 317 316 316 316
314 315 316 314 315 316 316 314 313 314 314 316 316 318 317 317 318 317 316 316 316 318 318 319 319 319 319 320 321 323 323 324 324 324 324 324 324 323 322 320 319 318 318 318
309 313 315 315 316 315 314 313 313 313 313 314 316 316 316 316 314 314 314 316 316 317 318 319 319 318 319 320 320 321 321 321 322 322 322 323 323 323 323 323 322 321 320 319
307 313 313 313 312 312 312 313 313 312 313 313 313 313 315 315 315 317 316 315 316 318 318 319 320 320 319 319 319 321 320 321 321 320 321 322 322 322 323 323 323 323 323 322
308 311 310 313 311 312 310 309 310 312 312 312 313 313 313 314 316 317 317 315 315 317 318 318 318 318 320 320 320 320 321 321 321 321 320 321 322 322 323 323 324 323 323 323
307 310 312 313 313 311 309 309 309 310 310 312 315 316 316 315 316 317 318 315 315 315 314 316 317 318 318 320 320 320 321 322 321 321 321 322 323 323 323 324 324 324 323 324
308 309 313 312 311 311 308 312 314 313 312 314 315 314 314 315 318 318 316 315 317 318 318 317 317 316 317 317 318 320 320 319 321 321 322 322 323 323 324 325 324 324 324 324
309 309 312 313 312 311 309 309 311 313 312 312 313 314 314 315 315 314 314 315 316 316 317 317 317 316 316 317 318 317 318 318 320 322 324 324 324 325 325 324 322 322 321 320
309 310 311 312 313 312 308 314 314 312 313 313 313 313 314 313 313 313 314 314 315 315 316 316 315 315 317 317 318 318 317 319 322 324 326 325 325 324 324 322 321 320 320 318
311 310 311 311 312 309 309 312 312 311 312 313 313 313 313 313 313 314 314 313 314 314 316 316 316 317 317 317 318 319 320 321 323 324 323 324 323 321 321 320 319 318 313 310
307 306 309 308 309 309 309 309 310 309 310 310 312 313 313 313 313 314 314 312 312 313 314 316 315 317 318 320 321 322 322 323 323 323 323 321 320 319 316 313 312 310 309 308
307 307 309 309 309 309 309 308 306 309 308 308 310 311 311 313 313 309 313 311 309 310 311 314 315 316 316 317 319 320 321 321 321 320 319 317 315 313 311 308 306 305 304 302
306 308 310 310 305 305 306 306 304 305 303 303 303 308 313 311 308 304 310 306 307 307 306 311 311 312 314 315 316 314 315 316 318 318 313 310 309 307 305 304 302 300 300 299

GFSCGP_850_thetae_057.txt.gz
Theta_e
312 314 316 318 320 320 321 322 322 322 321 320 321 321 323 323 322 324 327 327 329 329 329 327 327 325 326 327 326 324 324 323 322 322 322 321 320 320 315 317 317 315 315 313
313 315 314 316 318 318 319 320 321 321 320 319 319 319 321 322 323 323 326 327 329 330 329 328 328 326 326 326 324 325 325 324 323 322 322 321 320 319 314 314 316 314 315 314
316 316 316 317 319 319 320 320 320 321 321 320 319 319 321 322 322 322 324 325 326 329 329 329 328 328 325 326 324 324 324 324 323 322 321 321 321 318 316 315 315 316 317 318
317 316 317 318 319 320 321 320 320 320 320 321 321 320 321 322 323 324 323 323 325 327 329 329 329 328 327 326 326 324 323 324 323 323 322 321 321 319 317 315 315 317 317 316
317 316 315 317 319 319 320 320 320 319 320 321 321 320 322 323 323 323 323 323 324 326 329 329 329 329 328 327 326 323 323 324 324 324 323 321 321 320 318 317 316 316 318 316
316 316 317 316 316 318 318 318 319 320 321 323 322 321 322 323 323 323 323 322 323 326 328 329 329 329 329 327 327 324 322 323 324 323 322 322 321 321 319 316 317 318 319 319
313 316 317 316 316 317 318 319 322 322 324 323 322 322 321 323 323 323 322 322 323 324 326 329 329 329 329 328 327 325 324 322 323 323 323 322 322 322 321 320 319 317 319 320
313 316 316 317 316 317 318 319 321 323 326 324 322 323 322 323 323 322 322 322 322 324 326 328 330 330 329 329 327 326 324 323 322 322 323 323 322 322 321 320 319 318 317 317
313 312 315 317 317 317 319 320 318 321 322 326 324 323 324 323 322 322 322 321 322 323 326 327 328 330 330 329 328 327 325 324 323 323 322 323 323 322 321 320 319 319 318 317
313 313 313 315 317 317 318 319 320 321 323 324 324 325 325 322 322 323 323 323 322 322 324 325 327 328 330 330 329 328 326 324 324 324 324 323 323 323 321 320 321 320 319 317
313 316 315 316 317 318 317 319 321 321 322 324 325 324 323 324 323 323 324 323 323 323 323 324 325 327 329 330 330 329 327 325 324 325 324 322 323 323 323 323 321 322 322 320
315 316 317 319 317 318 319 319 321 323 325 323 326 324 323 322 321 321 321 322 322 322 322 323 325 327 328 330 330 329 328 326 325 324 325 324 324 324 324 323 324 323 323 322
316 316 317 319 318 318 318 319 320 322 322 324 328 324 322 321 320 320 320 321 321 321 321 322 323 327 329 329 329 330 329 327 327 325 325 324 324 324 324 323 324 324 324 323
314 318 316 317 318 318 319 320 320 321 323 323 324 323 322 320 320 320 319 320 320 320 320 320 321 322 326 328 329 329 330 329 328 327 325 325 323 321 321 322 322 323 324 324
315 319 319 316 317 317 318 319 319 319 320 321 321 321 320 320 319 318 317 316 316 318 320 320 321 321 322 324 328 329 329 329 329 328 327 326 325 323 324 324 324 323 323 322
314 316 315 317 315 315 316 317 317 317 317 317 318 318 318 318 317 316 316 314 315 316 319 320 321 320 320 321 322 327 328 329 329 329 328 327 326 326 325 325 324 323 323 323
311 312 315 316 314 314 314 315 316 317 317 317 318 318 315 315 314 315 315 316 317 318 319 319 320 321 321 321 321 322 325 328 329 329 328 328 327 326 326 325 325 324 323 323
311 312 313 316 315 317 314 314 314 315 315 316 314 314 314 315 315 315 315 319 319 318 319 319 320 319 319 320 321 321 321 323 327 328 328 328 327 327 326 326 325 325 324 323
310 312 314 314 315 314 313 312 312 312 312 312 313 315 315 315 315 316 317 316 317 318 318 318 318 318 319 319 320 320 320 320 322 326 328 327 327 326 326 326 325 325 324 324
310 310 313 314 313 313 312 313 314 313 312 315 315 316 315 315 317 318 316 316 316 316 316 315 316 317 318 319 320 321 319 319 320 322 326 327 327 326 325 325 325 324 324 323
311 311 311 312 313 312 311 312 311 315 316 314 314 314 314 315 314 315 315 316 315 315 314 313 313 313 312 313 312 316 321 321 320 320 322 326 327 326 326 325 325 325 324 324
310 311 312 312 313 312 312 312 313 316 314 314 313 314 315 315 315 314 316 315 315 313 311 310 309 308 312 314 314 314 317 321 322 322 322 324 326 327 326 326 325 325 325 324
311 311 312 311 312 313 312 314 314 313 313 313 313 313 313 313 313 314 315 314 312 310 307 305 305 306 311 312 310 309 313 315 318 320 321 322 324 325 325 325 325 324 322 322
311 311 312 313 312 312 311 313 312 311 311 311 310 310 310 311 311 311 309 309 306 304 302 301 303 305 308 311 306 303 304 308 312 316 317 318 320 321 321 320 320 319 318 315
310 310 310 311 311 311 311 312 311 310 309 309 308 308 308 306 307 306 306 302 299 297 296 296 301 295 303 307 303 300 299 301 305 309 310 311 311 311 310 310 308 309 307 308
309 310 311 311 312 312 311 310 308 307 307 306 305 305 303 303 302 301 299 295 293 292 295 296 297 298 297 303 299 297 297 297 299 301 299 300 303 300 298 298 297 297 299 300